Time,TemperatureF,DewpointF,PressureIn,WindDirection,WindDirectionDegrees,WindSpeedMPH,WindSpeedGustMPH,Humidity,HourlyPrecipIn,Conditions,Clouds,dailyrainin,SoftwareType,DateUTC
2013-03-29 00:00:00,25.3,21.4,30.37,West,264,0.0,0.0,85,0.00,CLR,,0.00,WeatherDisplay:10.37,2013-03-29 04:00:00,
2013-03-29 00:02:00,25.3,21.4,30.37,West,264,0.0,0.0,85,0.00,CLR,,0.00,WeatherDisplay:10.37,2013-03-29 04:02:00,
2013-03-29 00:05:00,25.3,21.4,30.37,West,264,0.0,0.0,85,0.00,,,0.00,WeatherDisplay:10.37,2013-03-29 04:05:00,
2013-03-29 00:07:00,25.3,21.4,30.37,West,264,0.0,0.0,85,0.00,,,0.00,WeatherDisplay:10.37,2013-03-29 04:07:00,
2013-03-29 00:10:00,25.3,21.4,30.37,West,264,0.0,0.0,85,0.00,,,0.00,WeatherDisplay:10.37,2013-03-29 04:10:00,
2013-03-29 00:12:00,25.3,21.4,30.37,West,264,0.0,0.0,85,0.00,,,0.00,WeatherDisplay:10.37,2013-03-29 04:12:00,
2013-03-29 00:15:00,25.2,21.3,30.37,West,264,0.0,0.0,85,0.00,,,0.00,WeatherDisplay:10.37,2013-03-29 04:15:00,
2013-03-29 00:17:00,25.1,20.9,30.37,West,264,0.0,0.0,84,0.00,,,0.00,WeatherDisplay:10.37,2013-03-29 04:17:00,
2013-03-29 00:20:00,25.0,21.1,30.37,West,264,0.0,0.0,85,0.00,,,0.00,WeatherDisplay:10.37,2013-03-29 04:20:00,
2013-03-29 00:21:00,24.9,21.0,30.37,West,264,0.0,0.0,85,0.00,,,0.00,WeatherDisplay:10.37,2013-03-29 04:21:00,
2013-03-29 00:22:00,24.9,21.0,30.37,West,264,0.0,0.0,85,0.00,,,0.00,WeatherDisplay:10.37,2013-03-29 04:22:00,
2013-03-29 00:25:00,24.8,20.9,30.37,West,264,0.0,0.0,85,0.00,,,0.00,WeatherDisplay:10.37,2013-03-29 04:25:00,
2013-03-29 00:27:00,24.8,20.9,30.37,West,264,0.0,0.0,85,0.00,,,0.00,WeatherDisplay:10.37,2013-03-29 04:27:00,
2013-03-29 00:28:00,24.8,20.9,30.37,West,264,0.0,0.0,85,0.00,,,0.00,WeatherDisplay:10.37,2013-03-29 04:28:00,
2013-03-29 00:31:00,24.7,20.8,30.37,West,264,0.0,0.0,85,0.00,,,0.00,WeatherDisplay:10.37,2013-03-29 04:31:00,
2013-03-29 00:32:00,24.7,21.1,30.37,West,264,0.0,0.0,86,0.00,,,0.00,WeatherDisplay:10.37,2013-03-29 04:32:00,
2013-03-29 00:33:00,24.6,21.0,30.37,West,264,0.0,0.0,86,0.00,,,0.00,WeatherDisplay:10.37,2013-03-29 04:33:00,
2013-03-29 00:36:00,24.6,21.0,30.36,West,264,0.0,0.0,86,0.00,,,0.00,WeatherDisplay:10.37,2013-03-29 04:36:00,
2013-03-29 00:37:00,24.6,21.0,30.37,West,264,0.0,0.0,86,0.00,,,0.00,WeatherDisplay:10.37,2013-03-29 04:37:00,
2013-03-29 00:38:00,24.7,21.1,30.36,West,264,0.0,0.0,86,0.00,,,0.00,WeatherDisplay:10.37,2013-03-29 04:38:00,
2013-03-29 00:42:00,24.6,21.0,30.36,West,264,0.0,0.0,86,0.00,,,0.00,WeatherDisplay:10.37,2013-03-29 04:42:00,
2013-03-29 00:43:00,24.6,21.0,30.36,West,264,0.0,0.0,86,0.00,,,0.00,WeatherDisplay:10.37,2013-03-29 04:43:00,
2013-03-29 00:47:00,24.5,20.9,30.36,West,264,0.0,0.0,86,0.00,,,0.00,WeatherDisplay:10.37,2013-03-29 04:47:00,
2013-03-29 00:48:00,24.5,20.9,30.36,West,264,0.0,0.0,86,0.00,,,0.00,WeatherDisplay:10.37,2013-03-29 04:48:00,
2013-03-29 00:49:00,24.4,20.8,30.36,West,264,0.0,0.0,86,0.00,,,0.00,WeatherDisplay:10.37,2013-03-29 04:49:00,
2013-03-29 00:52:00,24.4,20.8,30.37,West,264,0.0,0.0,86,0.00,,,0.00,WeatherDisplay:10.37,2013-03-29 04:52:00,
2013-03-29 00:53:00,24.4,20.8,30.37,West,264,0.0,0.0,86,0.00,,,0.00,WeatherDisplay:10.37,2013-03-29 04:53:00,
2013-03-29 00:54:00,24.3,20.7,30.37,West,264,0.0,0.0,86,0.00,,,0.00,WeatherDisplay:10.37,2013-03-29 04:54:00,
2013-03-29 00:57:00,24.2,20.6,30.37,West,264,0.0,0.0,86,0.00,,,0.00,WeatherDisplay:10.37,2013-03-29 04:57:00,
2013-03-29 00:58:00,24.2,20.9,30.37,West,264,0.0,0.0,87,0.00,,,0.00,WeatherDisplay:10.37,2013-03-29 04:58:00,
2013-03-29 00:59:00,24.2,20.9,30.37,West,264,0.0,0.0,87,0.00,,,0.00,WeatherDisplay:10.37,2013-03-29 04:59:00,
2013-03-29 01:03:00,24.2,20.9,30.37,West,264,0.0,0.0,87,0.00,,,0.00,WeatherDisplay:10.37,2013-03-29 05:03:00,
2013-03-29 01:04:00,24.2,20.9,30.37,West,264,0.0,0.0,87,0.00,,,0.00,WeatherDisplay:10.37,2013-03-29 05:04:00,
2013-03-29 01:09:00,24.0,20.7,30.37,West,264,0.0,0.0,87,0.00,,,0.00,WeatherDisplay:10.37,2013-03-29 05:09:00,
2013-03-29 01:10:00,24.0,20.7,30.37,West,264,0.0,0.0,87,0.00,,,0.00,WeatherDisplay:10.37,2013-03-29 05:10:00,
2013-03-29 01:14:00,24.0,21.0,30.37,West,264,0.0,0.0,88,0.00,,,0.00,WeatherDisplay:10.37,2013-03-29 05:14:00,
2013-03-29 01:15:00,24.0,21.0,30.37,West,264,0.0,0.0,88,0.00,,,0.00,WeatherDisplay:10.37,2013-03-29 05:15:00,
2013-03-29 01:19:00,24.0,21.0,30.37,West,264,0.0,0.0,88,0.00,,,0.00,WeatherDisplay:10.37,2013-03-29 05:19:00,
2013-03-29 01:20:00,23.9,20.6,30.37,West,264,0.0,0.0,87,0.00,,,0.00,WeatherDisplay:10.37,2013-03-29 05:20:00,
2013-03-29 01:21:00,23.9,20.6,30.37,West,264,0.0,0.0,87,0.00,,,0.00,WeatherDisplay:10.37,2013-03-29 05:21:00,
2013-03-29 01:24:00,23.8,20.8,30.37,West,264,0.0,0.0,88,0.00,,,0.00,WeatherDisplay:10.37,2013-03-29 05:24:00,
2013-03-29 01:25:00,23.8,20.8,30.37,West,264,0.0,0.0,88,0.00,,,0.00,WeatherDisplay:10.37,2013-03-29 05:25:00,
2013-03-29 01:26:00,23.8,20.8,30.37,West,264,0.0,0.0,88,0.00,,,0.00,WeatherDisplay:10.37,2013-03-29 05:26:00,
2013-03-29 01:29:00,23.6,20.6,30.37,West,264,0.0,0.0,88,0.00,,,0.00,WeatherDisplay:10.37,2013-03-29 05:29:00,
2013-03-29 01:30:00,23.6,20.6,30.37,West,264,0.0,0.0,88,0.00,,,0.00,WeatherDisplay:10.37,2013-03-29 05:30:00,
2013-03-29 01:33:00,23.6,20.6,30.37,West,264,0.0,0.0,88,0.00,,,0.00,WeatherDisplay:10.37,2013-03-29 05:33:00,
2013-03-29 01:35:00,23.6,20.6,30.37,West,264,0.0,0.0,88,0.00,,,0.00,WeatherDisplay:10.37,2013-03-29 05:35:00,
2013-03-29 01:38:00,23.4,20.4,30.37,West,264,0.0,0.0,88,0.00,,,0.00,WeatherDisplay:10.37,2013-03-29 05:38:00,
2013-03-29 01:40:00,23.3,20.3,30.37,West,264,0.0,0.0,88,0.00,,,0.00,WeatherDisplay:10.37,2013-03-29 05:40:00,
2013-03-29 01:43:00,23.3,20.5,30.37,West,264,0.0,0.0,89,0.00,,,0.00,WeatherDisplay:10.37,2013-03-29 05:43:00,
2013-03-29 01:45:00,23.2,20.4,30.38,West,264,0.0,0.0,89,0.00,,,0.00,WeatherDisplay:10.37,2013-03-29 05:45:00,
2013-03-29 01:48:00,23.1,20.1,30.37,West,264,0.0,0.0,88,0.00,,,0.00,WeatherDisplay:10.37,2013-03-29 05:48:00,
2013-03-29 01:50:00,23.0,20.0,30.38,West,264,0.0,0.0,88,0.00,,,0.00,WeatherDisplay:10.37,2013-03-29 05:50:00,
2013-03-29 01:51:00,23.0,20.0,30.37,West,264,0.0,0.0,88,0.00,,,0.00,WeatherDisplay:10.37,2013-03-29 05:51:00,
2013-03-29 01:53:00,22.8,19.8,30.37,West,264,0.0,0.0,88,0.00,,,0.00,WeatherDisplay:10.37,2013-03-29 05:53:00,
2013-03-29 01:55:00,22.8,20.0,30.37,West,264,0.0,0.0,89,0.00,,,0.00,WeatherDisplay:10.37,2013-03-29 05:55:00,
2013-03-29 01:56:00,22.8,20.0,30.37,West,264,0.0,0.0,89,0.00,,,0.00,WeatherDisplay:10.37,2013-03-29 05:56:00,
2013-03-29 01:57:00,22.8,20.0,30.38,West,264,0.0,0.0,89,0.00,,,0.00,WeatherDisplay:10.37,2013-03-29 05:57:00,
2013-03-29 01:59:00,22.8,20.0,30.37,West,264,0.0,0.0,89,0.00,,,0.00,WeatherDisplay:10.37,2013-03-29 05:59:00,
2013-03-29 02:00:00,22.9,20.1,30.37,West,264,0.0,0.0,89,0.00,CLR,,0.00,WeatherDisplay:10.37,2013-03-29 06:00:00,
2013-03-29 02:01:00,22.8,20.0,30.38,West,264,0.0,0.0,89,0.00,CLR,,0.00,WeatherDisplay:10.37,2013-03-29 06:01:00,
2013-03-29 02:02:00,22.8,20.0,30.37,West,264,0.0,0.0,89,0.00,CLR,,0.00,WeatherDisplay:10.37,2013-03-29 06:02:00,
2013-03-29 02:04:00,22.8,20.0,30.38,West,264,0.0,0.0,89,0.00,CLR,,0.00,WeatherDisplay:10.37,2013-03-29 06:04:00,
2013-03-29 02:05:00,22.8,20.0,30.38,West,264,0.0,0.0,89,0.00,CLR,,0.00,WeatherDisplay:10.37,2013-03-29 06:05:00,
2013-03-29 02:06:00,22.8,20.0,30.38,West,264,0.0,0.0,89,0.00,CLR,,0.00,WeatherDisplay:10.37,2013-03-29 06:06:00,
2013-03-29 02:07:00,22.8,20.0,30.38,West,264,0.0,0.0,89,0.00,CLR,,0.00,WeatherDisplay:10.37,2013-03-29 06:07:00,
2013-03-29 02:09:00,22.8,20.0,30.38,West,264,0.0,0.0,89,0.00,CLR,,0.00,WeatherDisplay:10.37,2013-03-29 06:09:00,
2013-03-29 02:11:00,22.8,20.0,30.38,West,264,0.0,0.0,89,0.00,CLR,,0.00,WeatherDisplay:10.37,2013-03-29 06:11:00,
2013-03-29 02:12:00,22.8,20.0,30.38,West,264,0.0,0.0,89,0.00,CLR,,0.00,WeatherDisplay:10.37,2013-03-29 06:12:00,
2013-03-29 02:13:00,22.8,20.3,30.38,West,264,0.0,0.0,90,0.00,CLR,,0.00,WeatherDisplay:10.37,2013-03-29 06:13:00,
2013-03-29 02:15:00,22.8,20.0,30.38,West,264,0.0,0.0,89,0.00,CLR,,0.00,WeatherDisplay:10.37,2013-03-29 06:15:00,
2013-03-29 02:17:00,22.8,20.0,30.38,West,264,0.0,0.0,89,0.00,CLR,,0.00,WeatherDisplay:10.37,2013-03-29 06:17:00,
2013-03-29 02:18:00,22.8,20.0,30.37,West,264,0.0,0.0,89,0.00,CLR,,0.00,WeatherDisplay:10.37,2013-03-29 06:18:00,
2013-03-29 02:20:00,22.8,20.0,30.38,West,264,0.0,0.0,89,0.00,CLR,,0.00,WeatherDisplay:10.37,2013-03-29 06:20:00,
2013-03-29 02:22:00,22.7,19.9,30.38,West,264,0.0,0.0,89,0.00,CLR,,0.00,WeatherDisplay:10.37,2013-03-29 06:22:00,
2013-03-29 02:23:00,22.7,19.9,30.38,West,264,0.0,0.0,89,0.00,CLR,,0.00,WeatherDisplay:10.37,2013-03-29 06:23:00,
2013-03-29 02:26:00,22.6,19.8,30.38,West,264,0.0,0.0,89,0.00,CLR,,0.00,WeatherDisplay:10.37,2013-03-29 06:26:00,
2013-03-29 02:27:00,22.5,19.7,30.38,West,264,0.0,0.0,89,0.00,CLR,,0.00,WeatherDisplay:10.37,2013-03-29 06:27:00,
2013-03-29 02:28:00,22.5,19.7,30.38,West,264,0.0,0.0,89,0.00,CLR,,0.00,WeatherDisplay:10.37,2013-03-29 06:28:00,
2013-03-29 02:31:00,22.4,19.6,30.38,West,264,0.0,0.0,89,0.00,CLR,,0.00,WeatherDisplay:10.37,2013-03-29 06:31:00,
2013-03-29 02:32:00,22.3,19.6,30.38,West,264,0.0,0.0,89,0.00,CLR,,0.00,WeatherDisplay:10.37,2013-03-29 06:32:00,
2013-03-29 02:33:00,22.3,19.6,30.38,West,264,0.0,0.0,89,0.00,CLR,,0.00,WeatherDisplay:10.37,2013-03-29 06:33:00,
2013-03-29 02:36:00,22.4,19.9,30.38,West,264,0.0,0.0,90,0.00,CLR,,0.00,WeatherDisplay:10.37,2013-03-29 06:36:00,
2013-03-29 02:38:00,22.4,19.6,30.38,West,264,0.0,0.0,89,0.00,CLR,,0.00,WeatherDisplay:10.37,2013-03-29 06:38:00,
2013-03-29 02:41:00,22.5,19.7,30.38,West,264,0.0,0.0,89,0.00,CLR,,0.00,WeatherDisplay:10.37,2013-03-29 06:41:00,
2013-03-29 02:43:00,22.5,19.7,30.38,West,264,0.0,0.0,89,0.00,CLR,,0.00,WeatherDisplay:10.37,2013-03-29 06:43:00,
2013-03-29 02:44:00,22.5,19.7,30.38,West,264,0.0,0.0,89,0.00,CLR,,0.00,WeatherDisplay:10.37,2013-03-29 06:44:00,
2013-03-29 02:46:00,22.5,19.7,30.38,West,264,0.0,0.0,89,0.00,CLR,,0.00,WeatherDisplay:10.37,2013-03-29 06:46:00,
2013-03-29 02:48:00,22.4,19.6,30.38,West,264,0.0,0.0,89,0.00,CLR,,0.00,WeatherDisplay:10.37,2013-03-29 06:48:00,
2013-03-29 02:49:00,22.5,19.7,30.38,West,264,0.0,0.0,89,0.00,CLR,,0.00,WeatherDisplay:10.37,2013-03-29 06:49:00,
2013-03-29 02:52:00,22.6,20.1,30.37,West,262,1.2,0.0,90,0.00,CLR,,0.00,WeatherDisplay:10.37,2013-03-29 06:52:00,
2013-03-29 02:53:00,22.6,20.1,30.37,West,262,0.0,0.0,90,0.00,CLR,,0.00,WeatherDisplay:10.37,2013-03-29 06:53:00,
2013-03-29 02:55:00,22.6,20.1,30.37,West,263,0.0,1.0,90,0.00,CLR,,0.00,WeatherDisplay:10.37,2013-03-29 06:55:00,
2013-03-29 02:58:00,22.5,19.7,30.38,West,261,0.0,0.0,89,0.00,CLR,,0.00,WeatherDisplay:10.37,2013-03-29 06:58:00,
2013-03-29 03:00:00,22.4,19.6,30.37,West,261,0.0,0.0,89,0.00,CLR,,0.00,WeatherDisplay:10.37,2013-03-29 07:00:00,
2013-03-29 03:03:00,22.4,19.6,30.37,WSW,241,0.0,0.0,89,0.00,CLR,,0.00,WeatherDisplay:10.37,2013-03-29 07:03:00,
2013-03-29 03:04:00,22.3,19.6,30.37,WSW,241,0.0,0.0,89,0.00,CLR,,0.00,WeatherDisplay:10.37,2013-03-29 07:04:00,
2013-03-29 03:05:00,22.3,19.6,30.37,WSW,254,0.0,1.0,89,0.00,CLR,,0.00,WeatherDisplay:10.37,2013-03-29 07:05:00,
2013-03-29 03:08:00,22.1,19.4,30.37,WSW,241,0.0,0.0,89,0.00,CLR,,0.00,WeatherDisplay:10.37,2013-03-29 07:08:00,
2013-03-29 03:09:00,22.1,19.4,30.38,WSW,240,0.0,0.0,89,0.00,CLR,,0.00,WeatherDisplay:10.37,2013-03-29 07:09:00,
2013-03-29 03:10:00,22.0,19.3,30.38,WSW,244,0.0,0.0,89,0.00,CLR,,0.00,WeatherDisplay:10.37,2013-03-29 07:10:00,
2013-03-29 03:13:00,21.9,19.2,30.38,WSW,240,0.0,0.0,89,0.00,CLR,,0.00,WeatherDisplay:10.37,2013-03-29 07:13:00,
2013-03-29 03:14:00,21.8,19.1,30.38,WSW,240,0.0,0.0,89,0.00,CLR,,0.00,WeatherDisplay:10.37,2013-03-29 07:14:00,
2013-03-29 03:15:00,21.8,19.1,30.38,WSW,240,0.0,0.0,89,0.00,CLR,,0.00,WeatherDisplay:10.37,2013-03-29 07:15:00,
2013-03-29 03:18:00,21.8,19.3,30.38,WSW,240,0.0,0.0,90,0.00,CLR,,0.00,WeatherDisplay:10.37,2013-03-29 07:18:00,
2013-03-29 03:19:00,21.8,19.3,30.38,WSW,241,0.0,0.0,90,0.00,CLR,,0.00,WeatherDisplay:10.37,2013-03-29 07:19:00,
2013-03-29 03:21:00,21.8,19.3,30.38,WSW,240,0.0,0.0,90,0.00,CLR,,0.00,WeatherDisplay:10.37,2013-03-29 07:21:00,
2013-03-29 03:23:00,21.9,19.4,30.37,WSW,240,0.0,0.0,90,0.00,CLR,,0.00,WeatherDisplay:10.37,2013-03-29 07:23:00,
2013-03-29 03:24:00,21.9,19.4,30.37,WSW,241,0.0,0.0,90,0.00,CLR,,0.00,WeatherDisplay:10.37,2013-03-29 07:24:00,
2013-03-29 03:25:00,22.0,19.5,30.37,WSW,240,0.0,0.0,90,0.00,CLR,,0.00,WeatherDisplay:10.37,2013-03-29 07:25:00,
2013-03-29 03:26:00,22.0,19.5,30.37,WSW,240,0.0,0.0,90,0.00,CLR,,0.00,WeatherDisplay:10.37,2013-03-29 07:26:00,
2013-03-29 03:29:00,21.9,19.4,30.37,WSW,240,1.2,0.0,90,0.00,CLR,,0.00,WeatherDisplay:10.37,2013-03-29 07:29:00,
2013-03-29 03:30:00,21.9,19.4,30.37,WSW,241,0.0,0.0,90,0.00,CLR,,0.00,WeatherDisplay:10.37,2013-03-29 07:30:00,
2013-03-29 03:32:00,21.9,19.4,30.37,WSW,240,0.0,0.0,90,0.00,CLR,,0.00,WeatherDisplay:10.37,2013-03-29 07:32:00,
2013-03-29 03:34:00,21.8,19.3,30.37,WSW,241,0.0,0.0,90,0.00,CLR,,0.00,WeatherDisplay:10.37,2013-03-29 07:34:00,
2013-03-29 03:35:00,21.8,19.3,30.37,WSW,240,0.0,0.0,90,0.00,CLR,,0.00,WeatherDisplay:10.37,2013-03-29 07:35:00,
2013-03-29 03:37:00,21.8,19.3,30.37,WSW,240,0.0,0.0,90,0.00,CLR,,0.00,WeatherDisplay:10.37,2013-03-29 07:37:00,
2013-03-29 03:39:00,21.8,19.3,30.37,WSW,240,0.0,0.0,90,0.00,CLR,,0.00,WeatherDisplay:10.37,2013-03-29 07:39:00,
2013-03-29 03:40:00,21.8,19.3,30.37,WSW,241,1.2,0.0,90,0.00,CLR,,0.00,WeatherDisplay:10.37,2013-03-29 07:40:00,
2013-03-29 03:42:00,21.8,19.3,30.37,WSW,240,0.0,0.0,90,0.00,CLR,,0.00,WeatherDisplay:10.37,2013-03-29 07:42:00,
2013-03-29 03:44:00,21.7,19.2,30.37,WSW,240,0.0,0.0,90,0.00,CLR,,0.00,WeatherDisplay:10.37,2013-03-29 07:44:00,
2013-03-29 03:45:00,21.7,19.2,30.37,WSW,240,0.0,0.0,90,0.00,CLR,,0.00,WeatherDisplay:10.37,2013-03-29 07:45:00,
2013-03-29 03:47:00,21.6,19.1,30.37,WSW,240,0.0,0.0,90,0.00,CLR,,0.00,WeatherDisplay:10.37,2013-03-29 07:47:00,
2013-03-29 03:50:00,21.5,19.0,30.37,WSW,241,0.0,0.0,90,0.00,CLR,,0.00,WeatherDisplay:10.37,2013-03-29 07:50:00,
2013-03-29 03:51:00,21.5,19.0,30.37,WSW,240,0.0,0.0,90,0.00,CLR,,0.00,WeatherDisplay:10.37,2013-03-29 07:51:00,
2013-03-29 03:52:00,21.5,19.0,30.37,WSW,241,0.0,0.0,90,0.00,CLR,,0.00,WeatherDisplay:10.37,2013-03-29 07:52:00,
2013-03-29 03:55:00,21.5,19.0,30.37,WSW,241,0.0,0.0,90,0.00,CLR,,0.00,WeatherDisplay:10.37,2013-03-29 07:55:00,
2013-03-29 03:56:00,21.5,19.0,30.37,WSW,241,0.0,0.0,90,0.00,CLR,,0.00,WeatherDisplay:10.37,2013-03-29 07:56:00,
2013-03-29 03:58:00,21.5,19.0,30.37,WSW,240,0.0,0.0,90,0.00,CLR,,0.00,WeatherDisplay:10.37,2013-03-29 07:58:00,
2013-03-29 04:00:00,21.5,19.0,30.37,WSW,241,0.0,0.0,90,0.00,CLR,,0.00,WeatherDisplay:10.37,2013-03-29 08:00:00,
2013-03-29 04:01:00,21.5,19.0,30.37,WSW,240,0.0,0.0,90,0.00,CLR,,0.00,WeatherDisplay:10.37,2013-03-29 08:01:00,
2013-03-29 04:02:00,21.5,19.0,30.37,WSW,240,0.0,0.0,90,0.00,CLR,,0.00,WeatherDisplay:10.37,2013-03-29 08:02:00,
2013-03-29 04:03:00,21.5,19.0,30.37,WSW,240,0.0,0.0,90,0.00,CLR,,0.00,WeatherDisplay:10.37,2013-03-29 08:03:00,
2013-03-29 04:06:00,21.4,18.9,30.37,WSW,240,0.0,0.0,90,0.00,CLR,,0.00,WeatherDisplay:10.37,2013-03-29 08:06:00,
2013-03-29 04:07:00,21.4,18.9,30.37,WSW,240,0.0,0.0,90,0.00,CLR,,0.00,WeatherDisplay:10.37,2013-03-29 08:07:00,
2013-03-29 04:08:00,21.4,18.9,30.37,WSW,240,0.0,0.0,90,0.00,CLR,,0.00,WeatherDisplay:10.37,2013-03-29 08:08:00,
2013-03-29 04:12:00,21.3,18.8,30.37,WSW,240,0.0,0.0,90,0.00,CLR,,0.00,WeatherDisplay:10.37,2013-03-29 08:12:00,
2013-03-29 04:13:00,21.2,18.7,30.37,WSW,240,0.0,0.0,90,0.00,CLR,,0.00,WeatherDisplay:10.37,2013-03-29 08:13:00,
2013-03-29 04:17:00,21.0,18.5,30.37,WSW,241,0.0,0.0,90,0.00,CLR,,0.00,WeatherDisplay:10.37,2013-03-29 08:17:00,
2013-03-29 04:18:00,20.9,18.4,30.37,WSW,241,0.0,0.0,90,0.00,CLR,,0.00,WeatherDisplay:10.37,2013-03-29 08:18:00,
2013-03-29 04:19:00,20.9,18.4,30.37,WSW,240,0.0,0.0,90,0.00,CLR,,0.00,WeatherDisplay:10.37,2013-03-29 08:19:00,
2013-03-29 04:22:00,20.8,18.6,30.37,WSW,240,0.0,0.0,91,0.00,CLR,,0.00,WeatherDisplay:10.37,2013-03-29 08:22:00,
2013-03-29 04:23:00,20.8,18.6,30.37,WSW,241,0.0,0.0,91,0.00,CLR,,0.00,WeatherDisplay:10.37,2013-03-29 08:23:00,
2013-03-29 04:24:00,20.7,18.5,30.37,WSW,241,0.0,0.0,91,0.00,CLR,,0.00,WeatherDisplay:10.37,2013-03-29 08:24:00,
2013-03-29 04:28:00,20.6,18.1,30.37,WSW,240,0.0,0.0,90,0.00,CLR,,0.00,WeatherDisplay:10.37,2013-03-29 08:28:00,
2013-03-29 04:29:00,20.6,18.4,30.37,WSW,240,0.0,0.0,91,0.00,CLR,,0.00,WeatherDisplay:10.37,2013-03-29 08:29:00,
2013-03-29 04:33:00,20.6,18.4,30.37,WSW,241,0.0,0.0,91,0.00,CLR,,0.00,WeatherDisplay:10.37,2013-03-29 08:33:00,
2013-03-29 04:34:00,20.7,18.5,30.37,WSW,240,0.0,0.0,91,0.00,CLR,,0.00,WeatherDisplay:10.37,2013-03-29 08:34:00,
2013-03-29 04:39:00,20.7,18.5,30.37,WSW,241,0.0,0.0,91,0.00,CLR,,0.00,WeatherDisplay:10.37,2013-03-29 08:39:00,
2013-03-29 04:40:00,20.7,18.5,30.37,WSW,240,0.0,0.0,91,0.00,CLR,,0.00,WeatherDisplay:10.37,2013-03-29 08:40:00,
2013-03-29 04:44:00,20.8,18.6,30.37,WSW,240,0.0,0.0,91,0.00,CLR,,0.00,WeatherDisplay:10.37,2013-03-29 08:44:00,
2013-03-29 04:45:00,20.8,18.6,30.37,WSW,241,0.0,0.0,91,0.00,CLR,,0.00,WeatherDisplay:10.37,2013-03-29 08:45:00,
2013-03-29 04:49:00,20.8,18.6,30.37,WSW,241,0.0,0.0,91,0.00,CLR,,0.00,WeatherDisplay:10.37,2013-03-29 08:49:00,
2013-03-29 04:50:00,20.8,18.6,30.37,WSW,240,0.0,0.0,91,0.00,CLR,,0.00,WeatherDisplay:10.37,2013-03-29 08:50:00,
2013-03-29 04:55:00,20.7,18.5,30.37,WSW,240,0.0,0.0,91,0.00,CLR,,0.00,WeatherDisplay:10.37,2013-03-29 08:55:00,
2013-03-29 05:00:00,20.7,18.5,30.37,WSW,240,0.0,0.0,91,0.00,CLR,,0.00,WeatherDisplay:10.37,2013-03-29 09:00:00,
2013-03-29 05:01:00,20.7,18.5,30.36,WSW,240,0.0,0.0,91,0.00,CLR,,0.00,WeatherDisplay:10.37,2013-03-29 09:01:00,
2013-03-29 05:05:00,20.6,18.4,30.37,WSW,240,0.0,0.0,91,0.00,CLR,,0.00,WeatherDisplay:10.37,2013-03-29 09:05:00,
2013-03-29 05:06:00,20.6,18.4,30.37,WSW,240,0.0,0.0,91,0.00,CLR,,0.00,WeatherDisplay:10.37,2013-03-29 09:06:00,
2013-03-29 05:10:00,20.6,18.4,30.37,WSW,240,0.0,0.0,91,0.00,CLR,,0.00,WeatherDisplay:10.37,2013-03-29 09:10:00,
2013-03-29 05:11:00,20.6,18.4,30.37,WSW,241,0.0,0.0,91,0.00,CLR,,0.00,WeatherDisplay:10.37,2013-03-29 09:11:00,
2013-03-29 05:15:00,20.5,18.3,30.37,WSW,240,0.0,0.0,91,0.00,CLR,,0.00,WeatherDisplay:10.37,2013-03-29 09:15:00,
2013-03-29 05:16:00,20.5,18.3,30.37,WSW,240,0.0,0.0,91,0.00,CLR,,0.00,WeatherDisplay:10.37,2013-03-29 09:16:00,
2013-03-29 05:17:00,20.5,18.3,30.37,WSW,240,0.0,0.0,91,0.00,CLR,,0.00,WeatherDisplay:10.37,2013-03-29 09:17:00,
2013-03-29 05:21:00,20.4,18.2,30.37,WSW,240,0.0,0.0,91,0.00,CLR,,0.00,WeatherDisplay:10.37,2013-03-29 09:21:00,
2013-03-29 05:22:00,20.4,18.2,30.37,WSW,240,0.0,0.0,91,0.00,CLR,,0.00,WeatherDisplay:10.37,2013-03-29 09:22:00,
2013-03-29 05:27:00,20.3,18.1,30.37,WSW,240,0.0,0.0,91,0.00,CLR,,0.00,WeatherDisplay:10.37,2013-03-29 09:27:00,
2013-03-29 05:28:00,20.2,18.0,30.37,WSW,240,0.0,0.0,91,0.00,CLR,,0.00,WeatherDisplay:10.37,2013-03-29 09:28:00,
2013-03-29 05:32:00,20.3,18.1,30.37,WSW,241,0.0,0.0,91,0.00,CLR,,0.00,WeatherDisplay:10.37,2013-03-29 09:32:00,
2013-03-29 05:33:00,20.3,18.1,30.37,WSW,241,0.0,0.0,91,0.00,CLR,,0.00,WeatherDisplay:10.37,2013-03-29 09:33:00,
2013-03-29 05:37:00,20.3,18.1,30.37,WSW,241,0.0,0.0,91,0.00,CLR,,0.00,WeatherDisplay:10.37,2013-03-29 09:37:00,
2013-03-29 05:38:00,20.3,18.1,30.37,WSW,241,0.0,0.0,91,0.00,CLR,,0.00,WeatherDisplay:10.37,2013-03-29 09:38:00,
2013-03-29 05:42:00,20.2,18.0,30.37,WSW,240,0.0,0.0,91,0.00,CLR,,0.00,WeatherDisplay:10.37,2013-03-29 09:42:00,
2013-03-29 05:43:00,20.2,18.0,30.37,WSW,240,0.0,0.0,91,0.00,CLR,,0.00,WeatherDisplay:10.37,2013-03-29 09:43:00,
2013-03-29 05:47:00,20.2,18.0,30.38,WSW,240,0.0,0.0,91,0.00,CLR,,0.00,WeatherDisplay:10.37,2013-03-29 09:47:00,
2013-03-29 05:48:00,20.2,18.0,30.38,WSW,240,0.0,0.0,91,0.00,CLR,,0.00,WeatherDisplay:10.37,2013-03-29 09:48:00,
2013-03-29 05:53:00,20.1,17.9,30.38,WSW,241,0.0,0.0,91,0.00,CLR,,0.00,WeatherDisplay:10.37,2013-03-29 09:53:00,
2013-03-29 05:54:00,20.1,17.9,30.38,WSW,241,0.0,0.0,91,0.00,CLR,,0.00,WeatherDisplay:10.37,2013-03-29 09:54:00,
2013-03-29 05:58:00,20.0,18.1,30.38,WSW,240,0.0,0.0,92,0.00,CLR,,0.00,WeatherDisplay:10.37,2013-03-29 09:58:00,
2013-03-29 05:59:00,20.0,18.1,30.38,WSW,240,0.0,0.0,92,0.00,CLR,,0.00,WeatherDisplay:10.37,2013-03-29 09:59:00,
2013-03-29 06:00:00,20.0,18.1,30.38,WSW,240,0.0,0.0,92,0.00,CLR,,0.00,WeatherDisplay:10.37,2013-03-29 10:00:00,
2013-03-29 06:03:00,20.0,18.1,30.38,WSW,240,0.0,0.0,92,0.00,CLR,,0.00,WeatherDisplay:10.37,2013-03-29 10:03:00,
2013-03-29 06:04:00,20.0,18.1,30.38,WSW,240,0.0,0.0,92,0.00,CLR,,0.00,WeatherDisplay:10.37,2013-03-29 10:04:00,
2013-03-29 06:05:00,20.0,18.1,30.38,WSW,240,0.0,0.0,92,0.00,CLR,,0.00,WeatherDisplay:10.37,2013-03-29 10:05:00,
2013-03-29 06:08:00,20.0,18.1,30.38,WSW,241,0.0,0.0,92,0.00,CLR,,0.00,WeatherDisplay:10.37,2013-03-29 10:08:00,
2013-03-29 06:09:00,20.0,18.1,30.38,WSW,241,0.0,0.0,92,0.00,CLR,,0.00,WeatherDisplay:10.37,2013-03-29 10:09:00,
2013-03-29 06:10:00,20.0,18.1,30.38,WSW,240,0.0,0.0,92,0.00,CLR,,0.00,WeatherDisplay:10.37,2013-03-29 10:10:00,
2013-03-29 06:14:00,20.0,18.1,30.38,WSW,240,0.0,0.0,92,0.00,CLR,,0.00,WeatherDisplay:10.37,2013-03-29 10:14:00,
2013-03-29 06:17:00,20.0,18.1,30.38,WSW,241,0.0,0.0,92,0.00,CLR,,0.00,WeatherDisplay:10.37,2013-03-29 10:17:00,
2013-03-29 06:19:00,20.0,18.1,30.38,WSW,240,0.0,0.0,92,0.00,CLR,,0.00,WeatherDisplay:10.37,2013-03-29 10:19:00,
2013-03-29 06:20:00,20.0,18.1,30.38,WSW,240,0.0,0.0,92,0.00,CLR,,0.00,WeatherDisplay:10.37,2013-03-29 10:20:00,
2013-03-29 06:22:00,20.0,18.1,30.38,WSW,240,0.0,0.0,92,0.00,CLR,,0.00,WeatherDisplay:10.37,2013-03-29 10:22:00,
2013-03-29 06:24:00,20.0,18.1,30.38,WSW,240,0.0,0.0,92,0.00,CLR,,0.00,WeatherDisplay:10.37,2013-03-29 10:24:00,
2013-03-29 06:25:00,20.0,18.1,30.38,WSW,240,0.0,0.0,92,0.00,CLR,,0.00,WeatherDisplay:10.37,2013-03-29 10:25:00,
2013-03-29 06:27:00,19.9,18.0,30.38,WSW,240,0.0,0.0,92,0.00,CLR,,0.00,WeatherDisplay:10.37,2013-03-29 10:27:00,
2013-03-29 06:29:00,19.9,18.0,30.38,WSW,240,0.0,0.0,92,0.00,CLR,,0.00,WeatherDisplay:10.37,2013-03-29 10:29:00,
2013-03-29 06:30:00,19.8,17.9,30.38,WSW,240,0.0,0.0,92,0.00,CLR,,0.00,WeatherDisplay:10.37,2013-03-29 10:30:00,
2013-03-29 06:32:00,19.8,17.9,30.38,WSW,240,0.0,0.0,92,0.00,CLR,,0.00,WeatherDisplay:10.37,2013-03-29 10:32:00,
2013-03-29 06:34:00,19.8,17.9,30.38,WSW,240,0.0,0.0,92,0.00,CLR,,0.00,WeatherDisplay:10.37,2013-03-29 10:34:00,
2013-03-29 06:35:00,19.8,17.9,30.38,WSW,240,0.0,0.0,92,0.00,CLR,,0.00,WeatherDisplay:10.37,2013-03-29 10:35:00,
2013-03-29 06:37:00,19.7,17.8,30.38,WSW,241,0.0,0.0,92,0.00,CLR,,0.00,WeatherDisplay:10.37,2013-03-29 10:37:00,
2013-03-29 06:39:00,19.6,17.7,30.38,WSW,240,0.0,0.0,92,0.00,CLR,,0.00,WeatherDisplay:10.37,2013-03-29 10:39:00,
2013-03-29 06:40:00,19.6,17.7,30.38,WSW,240,0.0,0.0,92,0.00,CLR,,0.00,WeatherDisplay:10.37,2013-03-29 10:40:00,
2013-03-29 06:42:00,19.6,17.7,30.38,WSW,241,0.0,0.0,92,0.00,CLR,,0.00,WeatherDisplay:10.37,2013-03-29 10:42:00,
2013-03-29 06:45:00,19.6,17.7,30.38,WSW,240,0.0,0.0,92,0.00,CLR,,0.00,WeatherDisplay:10.37,2013-03-29 10:45:00,
2013-03-29 06:48:00,19.6,17.7,30.38,WSW,241,0.0,0.0,92,0.00,CLR,,0.00,WeatherDisplay:10.37,2013-03-29 10:48:00,
2013-03-29 06:50:00,19.6,17.7,30.38,WSW,241,0.0,0.0,92,0.00,CLR,,0.00,WeatherDisplay:10.37,2013-03-29 10:50:00,
2013-03-29 06:51:00,19.6,17.7,30.38,WSW,241,0.0,0.0,92,0.00,CLR,,0.00,WeatherDisplay:10.37,2013-03-29 10:51:00,
2013-03-29 06:53:00,19.7,17.8,30.38,WSW,241,0.0,0.0,92,0.00,CLR,,0.00,WeatherDisplay:10.37,2013-03-29 10:53:00,
2013-03-29 06:55:00,19.6,17.7,30.38,WSW,240,0.0,0.0,92,0.00,CLR,,0.00,WeatherDisplay:10.37,2013-03-29 10:55:00,
2013-03-29 06:56:00,19.6,17.7,30.38,WSW,241,0.0,0.0,92,0.00,CLR,,0.00,WeatherDisplay:10.37,2013-03-29 10:56:00,
2013-03-29 06:58:00,19.6,17.7,30.38,WSW,240,0.0,0.0,92,0.00,CLR,,0.00,WeatherDisplay:10.37,2013-03-29 10:58:00,
2013-03-29 07:00:00,19.6,17.7,30.39,WSW,240,0.0,0.0,92,0.00,CLR,,0.00,WeatherDisplay:10.37,2013-03-29 11:00:00,
2013-03-29 07:01:00,19.6,17.7,30.39,WSW,241,0.0,0.0,92,0.00,CLR,,0.00,WeatherDisplay:10.37,2013-03-29 11:01:00,
2013-03-29 07:02:00,19.5,17.6,30.39,WSW,240,0.0,0.0,92,0.00,CLR,,0.00,WeatherDisplay:10.37,2013-03-29 11:02:00,
2013-03-29 07:03:00,19.5,17.6,30.38,WSW,240,0.0,0.0,92,0.00,CLR,,0.00,WeatherDisplay:10.37,2013-03-29 11:03:00,
2013-03-29 07:05:00,19.5,17.6,30.39,WSW,241,0.0,0.0,92,0.00,CLR,,0.00,WeatherDisplay:10.37,2013-03-29 11:05:00,
2013-03-29 07:06:00,19.5,17.6,30.39,WSW,240,0.0,0.0,92,0.00,CLR,,0.00,WeatherDisplay:10.37,2013-03-29 11:06:00,
2013-03-29 07:07:00,19.5,17.6,30.39,WSW,240,0.0,0.0,92,0.00,CLR,,0.00,WeatherDisplay:10.37,2013-03-29 11:07:00,
2013-03-29 07:08:00,19.5,17.6,30.39,WSW,241,0.0,0.0,92,0.00,CLR,,0.00,WeatherDisplay:10.37,2013-03-29 11:08:00,
2013-03-29 07:11:00,19.4,17.5,30.39,WSW,241,0.0,0.0,92,0.00,CLR,,0.00,WeatherDisplay:10.37,2013-03-29 11:11:00,
2013-03-29 07:12:00,19.4,17.5,30.38,WSW,240,0.0,0.0,92,0.00,CLR,,0.00,WeatherDisplay:10.37,2013-03-29 11:12:00,
2013-03-29 07:14:00,19.4,17.5,30.39,WSW,241,0.0,0.0,92,0.00,CLR,,0.00,WeatherDisplay:10.37,2013-03-29 11:14:00,
2013-03-29 07:17:00,19.4,17.5,30.38,WSW,241,0.0,0.0,92,0.00,CLR,,0.00,WeatherDisplay:10.37,2013-03-29 11:17:00,
2013-03-29 07:19:00,19.4,17.5,30.38,WSW,240,0.0,0.0,92,0.00,CLR,,0.00,WeatherDisplay:10.37,2013-03-29 11:19:00,
2013-03-29 07:22:00,19.4,17.5,30.38,WSW,240,0.0,0.0,92,0.00,CLR,,0.00,WeatherDisplay:10.37,2013-03-29 11:22:00,
2013-03-29 07:23:00,19.4,17.5,30.38,WSW,240,0.0,0.0,92,0.00,CLR,,0.00,WeatherDisplay:10.37,2013-03-29 11:23:00,
2013-03-29 07:24:00,19.4,17.5,30.39,WSW,240,0.0,0.0,92,0.00,CLR,,0.00,WeatherDisplay:10.37,2013-03-29 11:24:00,
2013-03-29 07:27:00,19.4,17.5,30.38,WSW,241,0.0,0.0,92,0.00,CLR,,0.00,WeatherDisplay:10.37,2013-03-29 11:27:00,
2013-03-29 07:28:00,19.4,17.5,30.39,WSW,241,0.0,0.0,92,0.00,CLR,,0.00,WeatherDisplay:10.37,2013-03-29 11:28:00,
2013-03-29 07:29:00,19.4,17.5,30.39,WSW,240,0.0,0.0,92,0.00,CLR,,0.00,WeatherDisplay:10.37,2013-03-29 11:29:00,
2013-03-29 07:32:00,19.5,17.6,30.39,WSW,241,0.0,0.0,92,0.00,CLR,,0.00,WeatherDisplay:10.37,2013-03-29 11:32:00,
2013-03-29 07:33:00,19.5,17.6,30.39,WSW,240,0.0,0.0,92,0.00,CLR,,0.00,WeatherDisplay:10.37,2013-03-29 11:33:00,
2013-03-29 07:34:00,19.5,17.6,30.39,WSW,240,0.0,0.0,92,0.00,CLR,,0.00,WeatherDisplay:10.37,2013-03-29 11:34:00,
2013-03-29 07:37:00,19.6,17.7,30.39,WSW,240,0.0,0.0,92,0.00,CLR,,0.00,WeatherDisplay:10.37,2013-03-29 11:37:00,
2013-03-29 07:38:00,19.6,17.7,30.39,WSW,240,0.0,0.0,92,0.00,CLR,,0.00,WeatherDisplay:10.37,2013-03-29 11:38:00,
2013-03-29 07:40:00,19.7,17.7,30.39,WSW,240,0.0,0.0,92,0.00,CLR,,0.00,WeatherDisplay:10.37,2013-03-29 11:40:00,
2013-03-29 07:43:00,19.7,17.8,30.39,WSW,240,0.0,0.0,92,0.00,CLR,,0.00,WeatherDisplay:10.37,2013-03-29 11:43:00,
2013-03-29 07:45:00,19.8,17.9,30.39,WSW,240,0.0,0.0,92,0.00,CLR,,0.00,WeatherDisplay:10.37,2013-03-29 11:45:00,
2013-03-29 07:48:00,20.0,18.1,30.39,WSW,240,0.0,0.0,92,0.00,CLR,,0.00,WeatherDisplay:10.37,2013-03-29 11:48:00,
2013-03-29 07:49:00,20.0,18.1,30.39,WSW,240,0.0,0.0,92,0.00,CLR,,0.00,WeatherDisplay:10.37,2013-03-29 11:49:00,
2013-03-29 07:50:00,20.1,18.1,30.39,WSW,240,0.0,0.0,92,0.00,CLR,,0.00,WeatherDisplay:10.37,2013-03-29 11:50:00,
2013-03-29 07:53:00,20.3,18.3,30.39,WSW,240,0.0,0.0,92,0.00,CLR,,0.00,WeatherDisplay:10.37,2013-03-29 11:53:00,
2013-03-29 07:54:00,20.4,18.4,30.39,WSW,241,0.0,0.0,92,0.00,CLR,,0.00,WeatherDisplay:10.37,2013-03-29 11:54:00,
2013-03-29 07:56:00,20.6,18.6,30.39,WSW,240,0.0,0.0,92,0.00,CLR,,0.00,WeatherDisplay:10.37,2013-03-29 11:56:00,
2013-03-29 07:58:00,20.9,19.2,30.40,WSW,240,0.0,0.0,93,0.00,CLR,,0.00,WeatherDisplay:10.37,2013-03-29 11:58:00,
2013-03-29 07:59:00,21.0,19.3,30.39,WSW,241,0.0,0.0,93,0.00,CLR,,0.00,WeatherDisplay:10.37,2013-03-29 11:59:00,
2013-03-29 08:01:00,21.3,19.6,30.39,WSW,240,0.0,0.0,93,0.00,CLR,,0.00,WeatherDisplay:10.37,2013-03-29 12:01:00,
2013-03-29 08:03:00,21.7,20.0,30.39,WSW,240,0.0,0.0,93,0.00,CLR,,0.00,WeatherDisplay:10.37,2013-03-29 12:03:00,
2013-03-29 08:04:00,21.8,20.1,30.39,WSW,240,0.0,0.0,93,0.00,CLR,,0.00,WeatherDisplay:10.37,2013-03-29 12:04:00,
2013-03-29 08:06:00,22.2,20.2,30.39,WSW,241,0.0,0.0,92,0.00,CLR,,0.00,WeatherDisplay:10.37,2013-03-29 12:06:00,
2013-03-29 08:08:00,22.6,20.6,30.39,WSW,240,0.0,0.0,92,0.00,CLR,,0.00,WeatherDisplay:10.37,2013-03-29 12:08:00,
2013-03-29 08:09:00,22.8,20.8,30.39,WSW,240,0.0,0.0,92,0.00,CLR,,0.00,WeatherDisplay:10.37,2013-03-29 12:09:00,
2013-03-29 08:12:00,23.4,21.4,30.39,WSW,241,0.0,0.0,92,0.00,CLR,,0.00,WeatherDisplay:10.37,2013-03-29 12:12:00,
2013-03-29 08:13:00,23.8,21.8,30.39,WSW,241,0.0,0.0,92,0.00,CLR,,0.00,WeatherDisplay:10.37,2013-03-29 12:13:00,
2013-03-29 08:14:00,23.8,21.8,30.39,WSW,240,0.0,0.0,92,0.00,CLR,,0.00,WeatherDisplay:10.37,2013-03-29 12:14:00,
2013-03-29 08:17:00,24.8,22.8,30.39,WSW,240,0.0,0.0,92,0.00,CLR,,0.00,WeatherDisplay:10.37,2013-03-29 12:17:00,
2013-03-29 08:19:00,25.5,23.8,30.39,WSW,240,0.0,0.0,93,0.00,CLR,,0.00,WeatherDisplay:10.37,2013-03-29 12:19:00,
2013-03-29 08:22:00,26.5,24.5,30.39,WSW,240,0.0,0.0,92,0.00,CLR,,0.00,WeatherDisplay:10.37,2013-03-29 12:22:00,
2013-03-29 08:24:00,27.1,24.8,30.39,WSW,240,0.0,0.0,91,0.00,CLR,,0.00,WeatherDisplay:10.37,2013-03-29 12:24:00,
2013-03-29 08:27:00,27.6,24.2,30.39,SW,227,1.2,1.2,87,0.00,CLR,,0.00,WeatherDisplay:10.37,2013-03-29 12:27:00,
2013-03-29 08:29:00,27.8,24.4,30.39,SW,228,0.0,0.1,87,0.00,CLR,,0.00,WeatherDisplay:10.37,2013-03-29 12:29:00,
2013-03-29 08:30:00,27.9,24.5,30.39,SW,227,0.0,0.1,87,0.00,CLR,,0.00,WeatherDisplay:10.37,2013-03-29 12:30:00,
2013-03-29 08:32:00,28.3,24.9,30.39,SW,227,1.2,1.2,87,0.00,CLR,,0.00,WeatherDisplay:10.37,2013-03-29 12:32:00,
2013-03-29 08:35:00,28.6,24.9,30.39,SW,222,1.2,0.0,86,0.00,CLR,,0.00,WeatherDisplay:10.37,2013-03-29 12:35:00,
2013-03-29 08:38:00,29.3,25.9,30.39,SW,222,0.0,0.0,87,0.00,CLR,,0.00,WeatherDisplay:10.37,2013-03-29 12:38:00,
2013-03-29 08:40:00,29.9,26.5,30.39,SW,222,1.2,0.0,87,0.00,CLR,,0.00,WeatherDisplay:10.37,2013-03-29 12:40:00,
2013-03-29 08:43:00,30.6,25.8,30.39,East,85,2.3,2.3,82,0.00,CLR,,0.00,WeatherDisplay:10.37,2013-03-29 12:43:00,
2013-03-29 08:45:00,30.5,25.4,30.39,ESE,116,1.0,2.0,81,0.00,CLR,,0.00,WeatherDisplay:10.37,2013-03-29 12:45:00,
2013-03-29 08:49:00,30.3,25.2,30.39,East,89,2.3,2.3,81,0.00,CLR,,0.00,WeatherDisplay:10.37,2013-03-29 12:49:00,
2013-03-29 08:50:00,30.3,25.2,30.39,East,97,1.0,2.0,81,0.00,CLR,,0.00,WeatherDisplay:10.37,2013-03-29 12:50:00,
2013-03-29 08:51:00,30.3,25.5,30.39,ESE,116,1.2,1.2,82,0.00,CLR,,0.00,WeatherDisplay:10.37,2013-03-29 12:51:00,
2013-03-29 08:54:00,30.7,25.9,30.39,SE,130,1.2,1.2,82,0.00,CLR,,0.00,WeatherDisplay:10.37,2013-03-29 12:54:00,
2013-03-29 08:55:00,30.7,25.9,30.39,ESE,103,1.0,2.0,82,0.00,CLR,,0.00,WeatherDisplay:10.37,2013-03-29 12:55:00,
2013-03-29 08:56:00,31.0,26.4,30.39,SE,130,1.2,1.2,83,0.00,CLR,,0.00,WeatherDisplay:10.37,2013-03-29 12:56:00,
2013-03-29 08:59:00,31.8,26.3,30.39,SE,129,2.3,2.3,80,0.00,CLR,,0.00,WeatherDisplay:10.37,2013-03-29 12:59:00,
2013-03-29 09:00:00,31.8,26.6,30.39,ESE,120,1.0,2.0,81,0.00,CLR,,0.00,WeatherDisplay:10.37,2013-03-29 13:00:00,
2013-03-29 09:01:00,32.0,26.5,30.39,East,89,2.3,2.3,80,0.00,CLR,,0.00,WeatherDisplay:10.37,2013-03-29 13:01:00,
2013-03-29 09:02:00,32.0,26.2,30.39,SE,125,2.3,2.3,79,0.00,CLR,,0.00,WeatherDisplay:10.37,2013-03-29 13:02:00,
2013-03-29 09:04:00,32.4,26.6,30.39,SE,144,1.2,1.2,79,0.00,CLR,,0.00,WeatherDisplay:10.37,2013-03-29 13:04:00,
2013-03-29 09:05:00,32.4,27.0,30.39,SE,128,1.0,2.0,80,0.00,CLR,,0.00,WeatherDisplay:10.37,2013-03-29 13:05:00,
2013-03-29 09:06:00,32.7,26.9,30.39,SSE,153,2.3,2.3,79,0.00,CLR,,0.00,WeatherDisplay:10.37,2013-03-29 13:06:00,
2013-03-29 09:08:00,33.1,27.3,30.39,SSE,157,1.2,1.2,79,0.00,CLR,,0.00,WeatherDisplay:10.37,2013-03-29 13:08:00,
2013-03-29 09:09:00,33.4,27.3,30.39,SSE,158,1.2,1.2,78,0.00,CLR,,0.00,WeatherDisplay:10.37,2013-03-29 13:09:00,
2013-03-29 09:10:00,33.4,27.3,30.39,SE,146,1.0,2.0,78,0.00,CLR,,0.00,WeatherDisplay:10.37,2013-03-29 13:10:00,
2013-03-29 09:12:00,33.9,27.8,30.39,SSE,149,2.3,2.3,78,0.00,CLR,,0.00,WeatherDisplay:10.37,2013-03-29 13:12:00,
2013-03-29 09:13:00,34.1,27.6,30.39,SSE,149,2.3,2.3,77,0.00,CLR,,0.00,WeatherDisplay:10.37,2013-03-29 13:13:00,
2013-03-29 09:14:00,34.3,27.8,30.39,SSE,149,1.2,1.2,77,0.00,CLR,,0.00,WeatherDisplay:10.37,2013-03-29 13:14:00,
2013-03-29 09:15:00,34.3,27.8,30.39,SSE,153,1.0,2.0,77,0.00,CLR,,0.00,WeatherDisplay:10.37,2013-03-29 13:15:00,
2013-03-29 09:17:00,34.6,28.1,30.39,SSE,150,0.0,0.0,77,0.00,CLR,,0.00,WeatherDisplay:10.37,2013-03-29 13:17:00,
2013-03-29 09:18:00,34.8,28.3,30.39,SSE,149,2.3,2.3,77,0.00,CLR,,0.00,WeatherDisplay:10.37,2013-03-29 13:18:00,
2013-03-29 09:20:00,35.3,28.8,30.39,South,177,1.2,1.2,77,0.00,CLR,,0.00,WeatherDisplay:10.37,2013-03-29 13:20:00,
2013-03-29 09:22:00,35.8,29.0,30.39,South,173,1.2,1.2,76,0.00,CLR,,0.00,WeatherDisplay:10.37,2013-03-29 13:22:00,
2013-03-29 09:23:00,36.0,29.2,30.39,South,174,1.2,1.2,76,0.00,CLR,,0.00,WeatherDisplay:10.37,2013-03-29 13:23:00,
2013-03-29 09:25:00,36.4,28.9,30.39,SSE,165,1.2,1.2,74,0.00,CLR,,0.00,WeatherDisplay:10.37,2013-03-29 13:25:00,
2013-03-29 09:27:00,36.8,29.3,30.39,WSW,248,0.0,0.0,74,0.00,CLR,,0.00,WeatherDisplay:10.37,2013-03-29 13:27:00,
2013-03-29 09:28:00,36.9,29.1,30.39,WSW,247,1.2,1.2,73,0.00,CLR,,0.00,WeatherDisplay:10.37,2013-03-29 13:28:00,
2013-03-29 09:30:00,37.2,29.0,30.39,WSW,245,1.2,1.2,72,0.00,CLR,,0.00,WeatherDisplay:10.37,2013-03-29 13:30:00,
2013-03-29 09:33:00,37.5,29.3,30.39,WSW,246,1.2,0.0,72,0.00,CLR,,0.00,WeatherDisplay:10.37,2013-03-29 13:33:00,
2013-03-29 09:35:00,37.7,29.1,30.39,WSW,246,0.0,1.0,71,0.00,CLR,,0.00,WeatherDisplay:10.37,2013-03-29 13:35:00,
2013-03-29 09:36:00,37.9,29.7,30.39,WSW,245,0.0,0.0,72,0.00,CLR,,0.00,WeatherDisplay:10.37,2013-03-29 13:36:00,
2013-03-29 09:38:00,38.5,30.6,30.39,WSW,245,0.0,0.0,73,0.00,CLR,,0.00,WeatherDisplay:10.37,2013-03-29 13:38:00,
2013-03-29 09:39:00,38.8,30.9,30.39,WSW,245,0.0,0.0,73,0.00,CLR,,0.00,WeatherDisplay:10.37,2013-03-29 13:39:00,
2013-03-29 09:40:00,39.2,31.3,30.40,WSW,246,1.2,0.0,73,0.00,CLR,,0.00,WeatherDisplay:10.37,2013-03-29 13:40:00,
2013-03-29 09:42:00,39.7,30.7,30.39,WSW,245,0.0,0.0,70,0.00,CLR,,0.00,WeatherDisplay:10.37,2013-03-29 13:42:00,
2013-03-29 09:43:00,40.2,31.5,30.39,WSW,245,0.0,0.0,71,0.00,CLR,,0.00,WeatherDisplay:10.37,2013-03-29 13:43:00,
2013-03-29 09:44:00,40.4,31.7,30.40,WSW,245,0.0,0.0,71,0.00,CLR,,0.00,WeatherDisplay:10.37,2013-03-29 13:44:00,
2013-03-29 09:45:00,40.8,30.7,30.40,WSW,245,0.0,0.0,67,0.00,CLR,,0.00,WeatherDisplay:10.37,2013-03-29 13:45:00,
2013-03-29 09:47:00,40.9,28.9,30.39,WSW,247,0.0,0.0,62,0.00,CLR,,0.00,WeatherDisplay:10.37,2013-03-29 13:47:00,
2013-03-29 09:48:00,40.9,29.3,30.39,WSW,248,0.0,0.0,63,0.00,CLR,,0.00,WeatherDisplay:10.37,2013-03-29 13:48:00,
2013-03-29 09:49:00,40.9,28.9,30.39,WSW,247,0.0,0.0,62,0.00,CLR,,0.00,WeatherDisplay:10.37,2013-03-29 13:49:00,
2013-03-29 09:51:00,41.3,29.6,30.39,WSW,248,1.2,1.2,63,0.00,CLR,,0.00,WeatherDisplay:10.37,2013-03-29 13:51:00,
2013-03-29 09:52:00,41.4,29.7,30.39,WSW,248,1.2,0.0,63,0.00,CLR,,0.00,WeatherDisplay:10.37,2013-03-29 13:52:00,
2013-03-29 09:53:00,41.5,29.0,30.39,WSW,247,1.2,0.0,61,0.00,CLR,,0.00,WeatherDisplay:10.37,2013-03-29 13:53:00,
2013-03-29 09:55:00,41.5,28.2,30.39,WSW,247,0.0,1.0,59,0.00,CLR,,0.00,WeatherDisplay:10.37,2013-03-29 13:55:00,
2013-03-29 09:57:00,41.3,28.4,30.39,WSW,249,1.2,1.2,60,0.00,CLR,,0.00,WeatherDisplay:10.37,2013-03-29 13:57:00,
2013-03-29 09:58:00,41.2,27.9,30.39,WSW,249,1.2,1.2,59,0.00,CLR,,0.00,WeatherDisplay:10.37,2013-03-29 13:58:00,
2013-03-29 10:00:00,41.1,27.4,30.39,WSW,249,0.0,1.0,58,0.00,CLR,,0.00,WeatherDisplay:10.37,2013-03-29 14:00:00,
2013-03-29 10:02:00,41.1,28.3,30.39,WSW,250,0.0,0.0,60,0.00,CLR,,0.00,WeatherDisplay:10.37,2013-03-29 14:02:00,
2013-03-29 10:03:00,41.1,28.3,30.38,WSW,250,0.0,0.0,60,0.00,CLR,,0.00,WeatherDisplay:10.37,2013-03-29 14:03:00,
2013-03-29 10:05:00,41.2,27.9,30.38,WSW,248,1.2,0.0,59,0.00,CLR,,0.00,WeatherDisplay:10.37,2013-03-29 14:05:00,
2013-03-29 10:08:00,41.5,28.2,30.38,WSW,249,1.2,0.0,59,0.00,CLR,,0.00,WeatherDisplay:10.37,2013-03-29 14:08:00,
2013-03-29 10:09:00,41.7,28.0,30.39,WSW,249,0.0,0.0,58,0.00,CLR,,0.00,WeatherDisplay:10.37,2013-03-29 14:09:00,
2013-03-29 10:10:00,41.9,28.6,30.39,NW,326,1.2,1.2,59,0.00,CLR,,0.00,WeatherDisplay:10.37,2013-03-29 14:10:00,
2013-03-29 10:13:00,42.1,27.1,30.38,WNW,285,2.3,2.3,55,0.00,CLR,,0.00,WeatherDisplay:10.37,2013-03-29 14:13:00,
2013-03-29 10:14:00,42.0,27.4,30.38,WNW,286,0.0,0.0,56,0.00,CLR,,0.00,WeatherDisplay:10.37,2013-03-29 14:14:00,
2013-03-29 10:15:00,42.1,28.4,30.38,WNW,285,0.0,0.0,58,0.00,CLR,,0.00,WeatherDisplay:10.37,2013-03-29 14:15:00,
2013-03-29 10:18:00,42.5,28.3,30.38,WNW,286,2.3,2.3,57,0.00,CLR,,0.00,WeatherDisplay:10.37,2013-03-29 14:18:00,
2013-03-29 10:19:00,42.5,27.5,30.38,WNW,287,1.2,0.0,55,0.00,CLR,,0.00,WeatherDisplay:10.37,2013-03-29 14:19:00,
2013-03-29 10:20:00,42.5,28.3,30.38,WNW,294,0.0,0.0,57,0.00,CLR,,0.00,WeatherDisplay:10.37,2013-03-29 14:20:00,
2013-03-29 10:23:00,42.6,28.0,30.38,WSW,256,1.2,1.2,56,0.00,CLR,,0.00,WeatherDisplay:10.37,2013-03-29 14:23:00,
2013-03-29 10:24:00,42.6,27.5,30.38,West,267,2.3,2.3,55,0.00,CLR,,0.00,WeatherDisplay:10.37,2013-03-29 14:24:00,
2013-03-29 10:27:00,42.8,27.7,30.38,WSW,253,2.3,2.3,55,0.00,CLR,,0.00,WeatherDisplay:10.37,2013-03-29 14:27:00,
2013-03-29 10:28:00,43.0,27.5,30.39,West,279,1.2,1.2,54,0.00,CLR,,0.00,WeatherDisplay:10.37,2013-03-29 14:28:00,
2013-03-29 10:29:00,43.0,27.9,30.39,WNW,299,2.3,2.3,55,0.00,CLR,,0.00,WeatherDisplay:10.37,2013-03-29 14:29:00,
2013-03-29 10:32:00,43.1,28.5,30.39,NW,307,2.3,2.3,56,0.00,CLR,,0.00,WeatherDisplay:10.37,2013-03-29 14:32:00,
2013-03-29 10:33:00,43.1,28.9,30.39,NW,307,1.2,1.2,57,0.00,CLR,,0.00,WeatherDisplay:10.37,2013-03-29 14:33:00,
2013-03-29 10:34:00,43.2,28.5,30.39,WSW,258,1.2,1.2,56,0.00,CLR,,0.00,WeatherDisplay:10.37,2013-03-29 14:34:00,
2013-03-29 10:37:00,43.7,27.7,30.39,West,261,3.5,3.5,53,0.00,CLR,,0.00,WeatherDisplay:10.37,2013-03-29 14:37:00,
2013-03-29 10:38:00,43.7,27.7,30.39,West,267,2.3,2.3,53,0.00,CLR,,0.00,WeatherDisplay:10.37,2013-03-29 14:38:00,
2013-03-29 10:39:00,43.8,27.8,30.39,WSW,255,2.3,2.3,53,0.00,CLR,,0.00,WeatherDisplay:10.37,2013-03-29 14:39:00,
2013-03-29 10:40:00,43.9,28.3,30.39,West,261,1.2,1.2,54,0.00,CLR,,0.00,WeatherDisplay:10.37,2013-03-29 14:40:00,
2013-03-29 10:43:00,44.3,28.2,30.39,West,266,2.3,2.3,53,0.00,CLR,,0.00,WeatherDisplay:10.37,2013-03-29 14:43:00,
2013-03-29 10:44:00,44.4,28.3,30.39,WSW,250,3.5,3.5,53,0.00,CLR,,0.00,WeatherDisplay:10.37,2013-03-29 14:44:00,
2013-03-29 10:45:00,44.5,27.5,30.39,WSW,255,3.5,3.5,51,0.00,CLR,,0.00,WeatherDisplay:10.37,2013-03-29 14:45:00,
2013-03-29 10:48:00,44.6,28.5,30.39,WNW,290,3.5,3.5,53,0.00,CLR,,0.00,WeatherDisplay:10.37,2013-03-29 14:48:00,
2013-03-29 10:49:00,44.7,28.1,30.39,WNW,289,0.0,0.0,52,0.00,CLR,,0.00,WeatherDisplay:10.37,2013-03-29 14:49:00,
2013-03-29 10:50:00,44.7,28.1,30.39,WNW,289,1.2,1.2,52,0.00,CLR,,0.00,WeatherDisplay:10.37,2013-03-29 14:50:00,
2013-03-29 10:53:00,45.0,27.9,30.39,South,170,2.3,2.3,51,0.00,CLR,,0.00,WeatherDisplay:10.37,2013-03-29 14:53:00,
2013-03-29 10:54:00,45.2,28.6,30.39,SSE,147,3.5,3.5,52,0.00,CLR,,0.00,WeatherDisplay:10.37,2013-03-29 14:54:00,
2013-03-29 10:55:00,45.2,28.6,30.39,South,179,3.5,3.5,52,0.00,CLR,,0.00,WeatherDisplay:10.37,2013-03-29 14:55:00,
2013-03-29 10:58:00,45.4,28.3,30.39,WSW,249,1.2,1.2,51,0.00,CLR,,0.00,WeatherDisplay:10.37,2013-03-29 14:58:00,
2013-03-29 11:00:00,45.5,28.0,30.38,SSW,193,0.0,2.0,50,0.00,CLR,,0.00,WeatherDisplay:10.37,2013-03-29 15:00:00,
2013-03-29 11:01:00,45.9,28.3,30.38,West,271,1.2,0.0,50,0.00,CLR,,0.00,WeatherDisplay:10.37,2013-03-29 15:01:00,
2013-03-29 11:03:00,45.8,27.7,30.39,WSW,254,3.5,3.5,49,0.00,CLR,,0.00,WeatherDisplay:10.37,2013-03-29 15:03:00,
2013-03-29 11:05:00,45.8,27.7,30.39,WSW,251,3.5,3.5,49,0.00,CLR,,0.00,WeatherDisplay:10.37,2013-03-29 15:05:00,
2013-03-29 11:07:00,45.8,27.2,30.39,WNW,296,7.0,7.0,48,0.00,CLR,,0.00,WeatherDisplay:10.37,2013-03-29 15:07:00,
2013-03-29 11:08:00,45.9,27.8,30.39,WSW,248,5.8,5.8,49,0.00,CLR,,0.00,WeatherDisplay:10.37,2013-03-29 15:08:00,
2013-03-29 11:11:00,46.0,27.4,30.39,West,278,4.6,5.5,48,0.00,CLR,,0.00,WeatherDisplay:10.37,2013-03-29 15:11:00,
2013-03-29 11:12:00,46.0,27.4,30.39,WSW,242,9.2,9.2,48,0.00,CLR,,0.00,WeatherDisplay:10.37,2013-03-29 15:12:00,
2013-03-29 11:13:00,45.8,26.7,30.39,WSW,257,8.1,8.1,47,0.00,CLR,,0.00,WeatherDisplay:10.37,2013-03-29 15:13:00,
2013-03-29 11:16:00,45.5,25.4,30.39,WSW,240,9.2,9.2,45,0.00,CLR,,0.00,WeatherDisplay:10.37,2013-03-29 15:16:00,
2013-03-29 11:17:00,45.3,25.2,30.39,WNW,299,8.1,8.1,45,0.00,CLR,,0.00,WeatherDisplay:10.37,2013-03-29 15:17:00,
2013-03-29 11:18:00,45.3,26.2,30.39,West,266,5.8,5.8,47,0.00,CLR,,0.00,WeatherDisplay:10.37,2013-03-29 15:18:00,
2013-03-29 11:21:00,45.5,26.9,30.38,NW,307,3.5,3.5,48,0.00,CLR,,0.00,WeatherDisplay:10.37,2013-03-29 15:21:00,
2013-03-29 11:22:00,45.6,27.0,30.39,WSW,247,6.9,6.9,48,0.00,CLR,,0.00,WeatherDisplay:10.37,2013-03-29 15:22:00,
2013-03-29 11:24:00,45.7,26.6,30.39,West,264,8.1,8.1,47,0.00,CLR,,0.00,WeatherDisplay:10.37,2013-03-29 15:24:00,
2013-03-29 11:27:00,46.0,26.4,30.39,West,267,9.2,9.2,46,0.00,CLR,,0.00,WeatherDisplay:10.37,2013-03-29 15:27:00,
2013-03-29 11:29:00,46.1,26.4,30.38,WSW,243,8.1,8.1,46,0.00,CLR,,0.00,WeatherDisplay:10.37,2013-03-29 15:29:00,
2013-03-29 11:32:00,46.0,25.8,30.39,West,261,8.1,8.1,45,0.00,CLR,,0.00,WeatherDisplay:10.37,2013-03-29 15:32:00,
2013-03-29 11:33:00,45.9,26.3,30.39,WNW,293,6.9,6.9,46,0.00,CLR,,0.00,WeatherDisplay:10.37,2013-03-29 15:33:00,
2013-03-29 11:34:00,46.0,25.8,30.39,WSW,253,9.2,9.2,45,0.00,CLR,,0.00,WeatherDisplay:10.37,2013-03-29 15:34:00,
2013-03-29 11:37:00,45.9,25.7,30.39,West,261,11.5,11.5,45,0.00,CLR,,0.00,WeatherDisplay:10.37,2013-03-29 15:37:00,
2013-03-29 11:38:00,45.9,25.7,30.39,WSW,253,6.9,6.9,45,0.00,CLR,,0.00,WeatherDisplay:10.37,2013-03-29 15:38:00,
2013-03-29 11:40:00,45.9,27.8,30.38,West,260,6.9,6.9,49,0.00,CLR,,0.00,WeatherDisplay:10.37,2013-03-29 15:40:00,
2013-03-29 11:42:00,46.2,27.1,30.39,West,267,6.9,6.9,47,0.00,CLR,,0.00,WeatherDisplay:10.37,2013-03-29 15:42:00,
2013-03-29 11:43:00,46.3,27.2,30.39,WSW,253,5.8,5.8,47,0.00,CLR,,0.00,WeatherDisplay:10.37,2013-03-29 15:43:00,
2013-03-29 11:45:00,46.6,27.4,30.39,SW,229,6.9,6.9,47,0.00,CLR,,0.00,WeatherDisplay:10.37,2013-03-29 15:45:00,
2013-03-29 11:47:00,46.7,26.5,30.38,NW,315,11.5,11.5,45,0.00,CLR,,0.00,WeatherDisplay:10.37,2013-03-29 15:47:00,
2013-03-29 11:48:00,46.6,26.4,30.38,NNW,335,11.5,11.5,45,0.00,CLR,,0.00,WeatherDisplay:10.37,2013-03-29 15:48:00,
2013-03-29 11:50:00,46.5,27.3,30.38,WNW,293,11.5,11.5,47,0.00,CLR,,0.00,WeatherDisplay:10.37,2013-03-29 15:50:00,
2013-03-29 11:52:00,46.8,27.6,30.38,West,260,6.0,6.0,47,0.00,CLR,,0.00,WeatherDisplay:10.37,2013-03-29 15:52:00,
2013-03-29 11:54:00,47.0,27.8,30.38,WSW,245,6.9,6.9,47,0.00,CLR,,0.00,WeatherDisplay:10.37,2013-03-29 15:54:00,
2013-03-29 11:55:00,47.1,26.3,30.38,WNW,293,8.1,8.1,44,0.00,CLR,,0.00,WeatherDisplay:10.37,2013-03-29 15:55:00,
2013-03-29 11:58:00,47.5,27.2,30.38,WSW,253,4.6,4.6,45,0.00,CLR,,0.00,WeatherDisplay:10.37,2013-03-29 15:58:00,
2013-03-29 11:59:00,47.5,27.2,30.38,NNW,333,4.0,4.0,45,0.00,CLR,,0.00,WeatherDisplay:10.37,2013-03-29 15:59:00,
2013-03-29 12:00:00,47.6,27.8,30.38,West,271,4.6,4.6,46,0.00,CLR,,0.00,WeatherDisplay:10.37,2013-03-29 16:00:00,
2013-03-29 12:03:00,47.8,26.4,30.38,WSW,254,6.9,6.9,43,0.00,CLR,,0.00,WeatherDisplay:10.37,2013-03-29 16:03:00,
2013-03-29 12:04:00,47.8,26.9,30.38,WSW,255,5.8,5.8,44,0.00,CLR,,0.00,WeatherDisplay:10.37,2013-03-29 16:04:00,
2013-03-29 12:05:00,47.9,27.6,30.38,West,276,3.5,3.5,45,0.00,CLR,,0.00,WeatherDisplay:10.37,2013-03-29 16:05:00,
2013-03-29 12:06:00,48.1,27.7,30.38,WSW,237,4.6,4.6,45,0.00,CLR,,0.00,WeatherDisplay:10.37,2013-03-29 16:06:00,
2013-03-29 12:09:00,48.1,26.1,30.38,WNW,302,8.1,8.1,42,0.00,CLR,,0.00,WeatherDisplay:10.37,2013-03-29 16:09:00,
2013-03-29 12:11:00,48.1,26.6,30.37,SW,236,5.8,5.8,43,0.00,CLR,,0.00,WeatherDisplay:10.37,2013-03-29 16:11:00,
2013-03-29 12:12:00,48.1,26.6,30.37,SW,232,10.0,10.0,43,0.00,CLR,,0.00,WeatherDisplay:10.37,2013-03-29 16:12:00,
2013-03-29 12:14:00,48.1,26.1,30.37,WSW,258,9.2,9.2,42,0.00,CLR,,0.00,WeatherDisplay:10.37,2013-03-29 16:14:00,
2013-03-29 12:17:00,48.3,26.2,30.37,SW,231,4.6,4.6,42,0.00,CLR,,0.00,WeatherDisplay:10.37,2013-03-29 16:17:00,
2013-03-29 12:19:00,48.4,25.8,30.36,WSW,253,5.8,5.8,41,0.00,CLR,,0.00,WeatherDisplay:10.37,2013-03-29 16:19:00,
2013-03-29 12:22:00,48.6,25.3,30.37,West,267,5.8,5.8,40,0.00,CLR,,0.00,WeatherDisplay:10.37,2013-03-29 16:22:00,
2013-03-29 12:24:00,48.7,26.6,30.36,West,260,6.9,6.9,42,0.00,CLR,,0.00,WeatherDisplay:10.37,2013-03-29 16:24:00,
2013-03-29 12:27:00,49.1,26.4,30.36,West,268,3.5,3.5,41,0.00,CLR,,0.00,WeatherDisplay:10.37,2013-03-29 16:27:00,
2013-03-29 12:28:00,49.1,27.0,30.36,West,261,4.0,4.0,42,0.00,CLR,,0.00,WeatherDisplay:10.37,2013-03-29 16:28:00,
2013-03-29 12:29:00,49.2,25.3,30.36,WSW,257,6.9,6.9,39,0.00,CLR,,0.00,WeatherDisplay:10.37,2013-03-29 16:29:00,
2013-03-29 12:30:00,49.2,25.3,30.36,West,261,6.9,6.9,39,0.00,CLR,,0.00,WeatherDisplay:10.37,2013-03-29 16:30:00,
2013-03-29 12:32:00,49.3,26.0,30.36,WSW,257,4.6,4.6,40,0.00,CLR,,0.00,WeatherDisplay:10.37,2013-03-29 16:32:00,
2013-03-29 12:33:00,49.3,26.0,30.36,SW,229,4.6,4.6,40,0.00,CLR,,0.00,WeatherDisplay:10.37,2013-03-29 16:33:00,
2013-03-29 12:34:00,49.3,26.6,30.36,West,268,5.8,5.8,41,0.00,CLR,,0.00,WeatherDisplay:10.37,2013-03-29 16:34:00,
2013-03-29 12:35:00,49.3,26.0,30.36,WSW,251,3.0,6.0,40,0.00,CLR,,0.00,WeatherDisplay:10.37,2013-03-29 16:35:00,
2013-03-29 12:37:00,49.3,26.0,30.36,WSW,254,5.8,5.8,40,0.00,CLR,,0.00,WeatherDisplay:10.37,2013-03-29 16:37:00,
2013-03-29 12:38:00,49.3,25.4,30.36,WSW,254,5.8,5.8,39,0.00,CLR,,0.00,WeatherDisplay:10.37,2013-03-29 16:38:00,
2013-03-29 12:40:00,49.3,26.0,30.36,WSW,258,6.9,6.9,40,0.00,CLR,,0.00,WeatherDisplay:10.37,2013-03-29 16:40:00,
2013-03-29 12:43:00,49.2,25.3,30.35,WNW,291,4.6,4.6,39,0.00,CLR,,0.00,WeatherDisplay:10.37,2013-03-29 16:43:00,
2013-03-29 12:45:00,49.4,27.2,30.35,West,269,6.9,6.9,42,0.00,CLR,,0.00,WeatherDisplay:10.37,2013-03-29 16:45:00,
2013-03-29 12:46:00,49.5,27.3,30.35,WSW,239,5.8,5.8,42,0.00,CLR,,0.00,WeatherDisplay:10.37,2013-03-29 16:46:00,
2013-03-29 12:48:00,49.6,25.6,30.35,West,271,5.0,5.0,39,0.00,CLR,,0.00,WeatherDisplay:10.37,2013-03-29 16:48:00,
2013-03-29 12:50:00,49.4,24.8,30.35,SW,219,9.2,9.2,38,0.00,CLR,,0.00,WeatherDisplay:10.37,2013-03-29 16:50:00,
2013-03-29 12:52:00,49.4,25.4,30.35,West,264,3.5,3.5,39,0.00,CLR,,0.00,WeatherDisplay:10.37,2013-03-29 16:52:00,
2013-03-29 12:53:00,49.4,25.4,30.35,WSW,253,4.6,4.6,39,0.00,CLR,,0.00,WeatherDisplay:10.37,2013-03-29 16:53:00,
2013-03-29 12:54:00,49.3,24.1,30.35,West,267,3.5,3.5,37,0.00,CLR,,0.00,WeatherDisplay:10.37,2013-03-29 16:54:00,
2013-03-29 12:55:00,49.6,26.8,30.35,WSW,249,3.5,3.5,41,0.00,CLR,,0.00,WeatherDisplay:10.37,2013-03-29 16:55:00,
2013-03-29 12:57:00,49.8,25.8,30.35,West,273,3.5,3.5,39,0.00,CLR,,0.00,WeatherDisplay:10.37,2013-03-29 16:57:00,
2013-03-29 12:59:00,49.9,25.3,30.35,SW,231,7.0,7.0,38,0.00,CLR,,0.00,WeatherDisplay:10.37,2013-03-29 16:59:00,
2013-03-29 13:00:00,49.8,24.5,30.35,SW,229,6.9,6.9,37,0.00,CLR,,0.00,WeatherDisplay:10.37,2013-03-29 17:00:00,
2013-03-29 13:02:00,50.0,26.6,30.35,WSW,241,3.5,3.5,40,0.00,CLR,,0.00,WeatherDisplay:10.37,2013-03-29 17:02:00,
2013-03-29 13:04:00,50.1,26.1,30.35,WSW,251,8.1,8.1,39,0.00,CLR,,0.00,WeatherDisplay:10.37,2013-03-29 17:04:00,
2013-03-29 13:05:00,50.0,25.4,30.35,SW,231,9.2,9.2,38,0.00,CLR,,0.00,WeatherDisplay:10.37,2013-03-29 17:05:00,
2013-03-29 13:08:00,49.9,25.3,30.35,WSW,256,8.1,8.1,38,0.00,CLR,,0.00,WeatherDisplay:10.37,2013-03-29 17:08:00,
2013-03-29 13:10:00,49.9,24.6,30.35,SW,225,8.1,8.1,37,0.00,CLR,,0.00,WeatherDisplay:10.37,2013-03-29 17:10:00,
2013-03-29 13:13:00,50.0,25.4,30.34,WNW,301,6.0,6.0,38,0.00,CLR,,0.00,WeatherDisplay:10.37,2013-03-29 17:13:00,
2013-03-29 13:15:00,50.1,26.1,30.34,SW,218,6.9,6.9,39,0.00,CLR,,0.00,WeatherDisplay:10.37,2013-03-29 17:15:00,
2013-03-29 13:18:00,50.2,24.9,30.34,WSW,250,6.9,6.9,37,0.00,CLR,,0.00,WeatherDisplay:10.37,2013-03-29 17:18:00,
2013-03-29 13:20:00,50.2,24.2,30.34,WSW,252,5.8,5.8,36,0.00,CLR,,0.00,WeatherDisplay:10.37,2013-03-29 17:20:00,
2013-03-29 13:24:00,50.3,24.3,30.34,WSW,255,8.1,8.1,36,0.00,CLR,,0.00,WeatherDisplay:10.37,2013-03-29 17:24:00,
2013-03-29 13:25:00,50.4,24.4,30.34,WNW,295,3.5,3.5,36,0.00,CLR,,0.00,WeatherDisplay:10.37,2013-03-29 17:25:00,
2013-03-29 13:26:00,50.4,25.1,30.34,WSW,255,3.5,3.5,37,0.00,CLR,,0.00,WeatherDisplay:10.37,2013-03-29 17:26:00,
2013-03-29 13:27:00,50.5,24.5,30.34,West,260,6.0,6.0,36,0.00,CLR,,0.00,WeatherDisplay:10.37,2013-03-29 17:27:00,
2013-03-29 13:29:00,50.4,25.1,30.34,WSW,258,3.5,3.5,37,0.00,CLR,,0.00,WeatherDisplay:10.37,2013-03-29 17:29:00,
2013-03-29 13:31:00,50.3,24.3,30.33,WSW,249,5.8,5.8,36,0.00,CLR,,0.00,WeatherDisplay:10.37,2013-03-29 17:31:00,
2013-03-29 13:32:00,50.3,24.3,30.33,WSW,258,5.8,5.8,36,0.00,CLR,,0.00,WeatherDisplay:10.37,2013-03-29 17:32:00,
2013-03-29 13:34:00,50.4,24.4,30.33,WNW,298,3.5,3.5,36,0.00,CLR,,0.00,WeatherDisplay:10.37,2013-03-29 17:34:00,
2013-03-29 13:37:00,50.7,26.0,30.33,WSW,239,4.6,4.6,38,0.00,CLR,,0.00,WeatherDisplay:10.37,2013-03-29 17:37:00,
2013-03-29 13:38:00,50.8,24.1,30.33,WSW,243,9.0,9.0,35,0.00,CLR,,0.00,WeatherDisplay:10.37,2013-03-29 17:38:00,
2013-03-29 13:39:00,50.8,24.8,30.33,WSW,241,10.4,10.4,36,0.00,CLR,,0.00,WeatherDisplay:10.37,2013-03-29 17:39:00,
2013-03-29 13:42:00,50.8,24.1,30.33,WSW,257,9.2,9.2,35,0.00,CLR,,0.00,WeatherDisplay:10.37,2013-03-29 17:42:00,
2013-03-29 13:43:00,50.9,23.5,30.33,WSW,239,6.9,6.9,34,0.00,CLR,,0.00,WeatherDisplay:10.37,2013-03-29 17:43:00,
2013-03-29 13:44:00,50.9,24.2,30.33,WSW,238,6.9,6.9,35,0.00,CLR,,0.00,WeatherDisplay:10.37,2013-03-29 17:44:00,
2013-03-29 13:47:00,50.8,22.0,30.33,West,272,15.0,15.0,32,0.00,CLR,,0.00,WeatherDisplay:10.37,2013-03-29 17:47:00,
2013-03-29 13:48:00,50.8,22.0,30.33,WNW,291,9.2,9.2,32,0.00,CLR,,0.00,WeatherDisplay:10.37,2013-03-29 17:48:00,
2013-03-29 13:49:00,50.7,24.0,30.33,West,266,12.7,12.7,35,0.00,CLR,,0.00,WeatherDisplay:10.37,2013-03-29 17:49:00,
2013-03-29 13:53:00,50.7,20.4,30.33,WSW,256,9.2,9.2,30,0.00,CLR,,0.00,WeatherDisplay:10.37,2013-03-29 17:53:00,
2013-03-29 13:54:00,50.7,20.4,30.33,WNW,301,10.4,10.4,30,0.00,CLR,,0.00,WeatherDisplay:10.37,2013-03-29 17:54:00,
2013-03-29 13:55:00,50.6,21.8,30.33,SW,219,10.4,10.4,32,0.00,CLR,,0.00,WeatherDisplay:10.37,2013-03-29 17:55:00,
2013-03-29 13:58:00,50.8,23.4,30.33,NW,309,11.5,11.5,34,0.00,CLR,,0.00,WeatherDisplay:10.37,2013-03-29 17:58:00,
2013-03-29 13:59:00,50.8,22.0,30.33,WSW,238,12.7,12.7,32,0.00,CLR,,0.00,WeatherDisplay:10.37,2013-03-29 17:59:00,
2013-03-29 14:01:00,50.7,22.6,30.33,West,268,3.5,3.5,33,0.00,CLR,,0.00,WeatherDisplay:10.37,2013-03-29 18:01:00,
2013-03-29 14:03:00,50.7,23.3,30.32,WSW,256,9.2,9.2,34,0.00,CLR,,0.00,WeatherDisplay:10.37,2013-03-29 18:03:00,
2013-03-29 14:05:00,50.9,23.5,30.32,WNW,295,6.9,6.9,34,0.00,CLR,,0.00,WeatherDisplay:10.37,2013-03-29 18:05:00,
2013-03-29 14:08:00,51.2,22.3,30.32,WSW,241,6.0,6.5,32,0.00,CLR,,0.00,WeatherDisplay:10.37,2013-03-29 18:08:00,
2013-03-29 14:09:00,51.3,23.1,30.32,WSW,253,9.2,9.2,33,0.00,CLR,,0.00,WeatherDisplay:10.37,2013-03-29 18:09:00,
2013-03-29 14:10:00,51.3,23.1,30.32,West,265,9.2,9.2,33,0.00,CLR,,0.00,WeatherDisplay:10.37,2013-03-29 18:10:00,
2013-03-29 14:13:00,51.1,22.2,30.32,West,271,10.4,10.4,32,0.00,CLR,,0.00,WeatherDisplay:10.37,2013-03-29 18:13:00,
2013-03-29 14:14:00,51.1,23.0,30.32,West,260,10.4,10.4,33,0.00,CLR,,0.00,WeatherDisplay:10.37,2013-03-29 18:14:00,
2013-03-29 14:15:00,51.1,23.0,30.32,WNW,292,8.1,8.1,33,0.00,CLR,,0.00,WeatherDisplay:10.37,2013-03-29 18:15:00,
2013-03-29 14:18:00,51.0,22.9,30.32,WNW,301,3.5,3.5,33,0.00,CLR,,0.00,WeatherDisplay:10.37,2013-03-29 18:18:00,
2013-03-29 14:19:00,51.0,23.6,30.32,SW,235,4.6,4.6,34,0.00,CLR,,0.00,WeatherDisplay:10.37,2013-03-29 18:19:00,
2013-03-29 14:20:00,51.2,25.1,30.32,WSW,243,6.9,6.9,36,0.00,CLR,,0.00,WeatherDisplay:10.37,2013-03-29 18:20:00,
2013-03-29 14:23:00,51.6,23.4,30.32,WSW,241,9.2,9.2,33,0.00,CLR,,0.00,WeatherDisplay:10.37,2013-03-29 18:23:00,
2013-03-29 14:24:00,51.6,23.4,30.32,WSW,250,6.9,6.9,33,0.00,CLR,,0.00,WeatherDisplay:10.37,2013-03-29 18:24:00,
2013-03-29 14:25:00,51.6,23.4,30.32,SW,226,7.0,7.0,33,0.00,CLR,,0.00,WeatherDisplay:10.37,2013-03-29 18:25:00,
2013-03-29 14:26:00,51.6,23.4,30.32,WSW,249,9.2,9.2,33,0.00,CLR,,0.00,WeatherDisplay:10.37,2013-03-29 18:26:00,
2013-03-29 14:28:00,51.2,21.6,30.32,WNW,299,6.9,6.9,31,0.00,CLR,,0.00,WeatherDisplay:10.37,2013-03-29 18:28:00,
2013-03-29 14:29:00,51.2,22.3,30.32,WNW,292,4.6,4.6,32,0.00,CLR,,0.00,WeatherDisplay:10.37,2013-03-29 18:29:00,
2013-03-29 14:30:00,51.2,23.0,30.32,NNW,331,3.5,3.5,33,0.00,CLR,,0.00,WeatherDisplay:10.37,2013-03-29 18:30:00,
2013-03-29 14:31:00,51.2,23.8,30.32,WNW,294,3.5,3.5,34,0.00,CLR,,0.00,WeatherDisplay:10.37,2013-03-29 18:31:00,
2013-03-29 14:33:00,51.4,23.9,30.32,WSW,248,7.0,7.0,34,0.00,CLR,,0.00,WeatherDisplay:10.37,2013-03-29 18:33:00,
2013-03-29 14:35:00,51.3,23.1,30.32,WSW,257,7.0,10.0,33,0.00,CLR,,0.00,WeatherDisplay:10.37,2013-03-29 18:35:00,
2013-03-29 14:36:00,51.1,22.2,30.32,WSW,244,11.5,11.5,32,0.00,CLR,,0.00,WeatherDisplay:10.37,2013-03-29 18:36:00,
2013-03-29 14:38:00,50.9,22.8,30.31,WNW,300,4.0,4.0,33,0.00,,,0.00,WeatherDisplay:10.37,2013-03-29 18:38:00,
2013-03-29 14:40:00,50.9,22.8,30.31,WSW,250,3.0,12.0,33,0.00,,,0.00,WeatherDisplay:10.37,2013-03-29 18:40:00,
2013-03-29 14:42:00,51.1,22.2,30.31,West,260,11.5,11.5,32,0.00,,,0.00,WeatherDisplay:10.37,2013-03-29 18:42:00,
2013-03-29 14:43:00,51.2,23.0,30.31,WSW,249,11.5,11.5,33,0.00,,,0.00,WeatherDisplay:10.37,2013-03-29 18:43:00,
2013-03-29 14:45:00,51.1,23.0,30.31,WSW,253,6.0,13.0,33,0.00,,,0.00,WeatherDisplay:10.37,2013-03-29 18:45:00,
2013-03-29 14:47:00,51.2,23.0,30.31,West,276,11.5,11.5,33,0.00,,,0.00,WeatherDisplay:10.37,2013-03-29 18:47:00,
2013-03-29 14:48:00,51.1,22.2,30.31,West,261,12.7,12.7,32,0.00,,,0.00,WeatherDisplay:10.37,2013-03-29 18:48:00,
2013-03-29 14:50:00,51.0,22.9,30.31,SW,233,8.1,8.1,33,0.00,,,0.00,WeatherDisplay:10.37,2013-03-29 18:50:00,
2013-03-29 14:51:00,51.0,22.9,30.31,WSW,243,9.2,9.2,33,0.00,,,0.00,WeatherDisplay:10.37,2013-03-29 18:51:00,
2013-03-29 14:52:00,51.0,22.9,30.31,West,262,11.5,11.5,33,0.00,,,0.00,WeatherDisplay:10.37,2013-03-29 18:52:00,
2013-03-29 14:54:00,50.9,22.1,30.31,WSW,239,11.5,11.5,32,0.00,,,0.00,WeatherDisplay:10.37,2013-03-29 18:54:00,
2013-03-29 14:55:00,50.8,22.0,30.31,WSW,238,11.5,11.5,32,0.00,,,0.00,WeatherDisplay:10.37,2013-03-29 18:55:00,
2013-03-29 14:57:00,50.8,22.7,30.31,WSW,248,10.4,10.4,33,0.00,,,0.00,WeatherDisplay:10.37,2013-03-29 18:57:00,
2013-03-29 14:59:00,50.8,24.1,30.30,WSW,258,4.6,4.6,35,0.00,,,0.00,WeatherDisplay:10.37,2013-03-29 18:59:00,
2013-03-29 15:00:00,50.9,23.5,30.30,WNW,296,5.8,5.8,34,0.00,,,0.00,WeatherDisplay:10.37,2013-03-29 19:00:00,
2013-03-29 15:02:00,51.0,25.0,30.30,WSW,240,5.8,5.8,36,0.00,,,0.00,WeatherDisplay:10.37,2013-03-29 19:02:00,
2013-03-29 15:03:00,51.2,23.8,30.30,WSW,257,8.1,8.1,34,0.00,,,0.00,WeatherDisplay:10.37,2013-03-29 19:03:00,
2013-03-29 15:04:00,51.2,23.8,30.30,WSW,240,11.5,11.5,34,0.00,,,0.00,WeatherDisplay:10.37,2013-03-29 19:04:00,
2013-03-29 15:05:00,51.3,23.8,30.30,WSW,256,9.0,9.0,34,0.00,,,0.00,WeatherDisplay:10.37,2013-03-29 19:05:00,
2013-03-29 15:07:00,51.2,23.8,30.30,WSW,239,11.5,11.5,34,0.00,,,0.00,WeatherDisplay:10.37,2013-03-29 19:07:00,
2013-03-29 15:08:00,51.2,23.0,30.30,WSW,245,12.7,12.7,33,0.00,,,0.00,WeatherDisplay:10.37,2013-03-29 19:08:00,
2013-03-29 15:10:00,51.2,24.5,30.30,SW,231,8.1,8.1,35,0.00,,,0.00,WeatherDisplay:10.37,2013-03-29 19:10:00,
2013-03-29 15:12:00,51.4,23.9,30.30,WNW,299,9.2,9.2,34,0.00,,,0.00,WeatherDisplay:10.37,2013-03-29 19:12:00,
2013-03-29 15:13:00,51.4,24.6,30.30,WNW,296,10.4,10.4,35,0.00,,,0.00,WeatherDisplay:10.37,2013-03-29 19:13:00,
2013-03-29 15:15:00,51.2,22.3,30.30,SW,226,10.4,10.4,32,0.00,,,0.00,WeatherDisplay:10.37,2013-03-29 19:15:00,
2013-03-29 15:16:00,51.1,23.0,30.30,WSW,250,9.2,9.2,33,0.00,,,0.00,WeatherDisplay:10.37,2013-03-29 19:16:00,
2013-03-29 15:18:00,51.1,24.4,30.30,WSW,243,4.6,4.6,35,0.00,,,0.00,WeatherDisplay:10.37,2013-03-29 19:18:00,
2013-03-29 15:20:00,51.2,23.0,30.30,WSW,255,9.2,9.2,33,0.00,,,0.00,WeatherDisplay:10.37,2013-03-29 19:20:00,
2013-03-29 15:22:00,51.1,23.0,30.30,West,271,9.2,9.2,33,0.00,,,0.00,WeatherDisplay:10.37,2013-03-29 19:22:00,
2013-03-29 15:23:00,51.0,23.6,30.30,WSW,240,10.0,10.0,34,0.00,,,0.00,WeatherDisplay:10.37,2013-03-29 19:23:00,
2013-03-29 15:25:00,51.0,23.6,30.29,SW,224,9.2,9.2,34,0.00,,,0.00,WeatherDisplay:10.37,2013-03-29 19:25:00,
2013-03-29 15:27:00,51.0,25.0,30.29,WSW,240,4.6,4.6,36,0.00,,,0.00,WeatherDisplay:10.37,2013-03-29 19:27:00,
2013-03-29 15:28:00,51.1,25.7,30.29,WSW,248,5.0,5.0,37,0.00,,,0.00,WeatherDisplay:10.37,2013-03-29 19:28:00,
2013-03-29 15:29:00,51.1,24.4,30.29,WNW,289,4.0,4.7,35,0.00,,,0.00,WeatherDisplay:10.37,2013-03-29 19:29:00,
2013-03-29 15:30:00,51.1,23.7,30.29,WNW,295,11.5,11.5,34,0.00,,,0.00,WeatherDisplay:10.37,2013-03-29 19:30:00,
2013-03-29 15:32:00,51.2,23.8,30.29,SW,228,10.4,10.4,34,0.00,,,0.00,WeatherDisplay:10.37,2013-03-29 19:32:00,
2013-03-29 15:34:00,51.3,23.8,30.29,WSW,247,6.9,6.9,34,0.00,,,0.00,WeatherDisplay:10.37,2013-03-29 19:34:00,
2013-03-29 15:36:00,51.4,24.6,30.29,WSW,238,9.2,9.2,35,0.00,,,0.00,WeatherDisplay:10.37,2013-03-29 19:36:00,
2013-03-29 15:38:00,51.5,25.4,30.29,WNW,289,12.7,12.7,36,0.00,,,0.00,WeatherDisplay:10.37,2013-03-29 19:38:00,
2013-03-29 15:39:00,51.6,24.8,30.29,WSW,241,13.8,13.8,35,0.00,,,0.00,WeatherDisplay:10.37,2013-03-29 19:39:00,
2013-03-29 15:42:00,51.8,25.7,30.29,West,260,8.1,8.1,36,0.00,,,0.00,WeatherDisplay:10.37,2013-03-29 19:42:00,
2013-03-29 15:43:00,52.0,25.8,30.29,WSW,253,10.0,10.0,36,0.00,,,0.00,WeatherDisplay:10.37,2013-03-29 19:43:00,
2013-03-29 15:44:00,52.1,25.3,30.29,West,267,11.5,11.5,35,0.00,,,0.00,WeatherDisplay:10.37,2013-03-29 19:44:00,
2013-03-29 15:47:00,52.2,23.9,30.29,SW,226,11.5,11.5,33,0.00,,,0.00,WeatherDisplay:10.37,2013-03-29 19:47:00,
2013-03-29 15:48:00,52.2,23.9,30.29,WSW,258,11.5,11.5,33,0.00,,,0.00,WeatherDisplay:10.37,2013-03-29 19:48:00,
2013-03-29 15:49:00,52.2,24.6,30.29,WNW,293,6.9,6.9,34,0.00,,,0.00,WeatherDisplay:10.37,2013-03-29 19:49:00,
2013-03-29 15:53:00,52.2,23.9,30.28,South,183,9.2,9.2,33,0.00,,,0.00,WeatherDisplay:10.37,2013-03-29 19:53:00,
2013-03-29 15:54:00,51.9,23.7,30.28,SW,235,8.1,8.1,33,0.00,,,0.00,WeatherDisplay:10.37,2013-03-29 19:54:00,
2013-03-29 15:55:00,51.7,24.9,30.28,NW,306,8.1,8.1,35,0.00,,,0.00,WeatherDisplay:10.37,2013-03-29 19:55:00,
2013-03-29 15:58:00,51.5,24.7,30.29,WSW,250,6.9,6.9,35,0.00,,,0.00,WeatherDisplay:10.37,2013-03-29 19:58:00,
2013-03-29 16:00:00,51.3,23.1,30.28,WSW,247,7.0,13.0,33,0.00,,,0.00,WeatherDisplay:10.37,2013-03-29 20:00:00,
2013-03-29 16:03:00,50.8,23.4,30.28,WSW,249,11.5,11.5,34,0.00,,,0.00,WeatherDisplay:10.37,2013-03-29 20:03:00,
2013-03-29 16:05:00,50.9,24.9,30.28,WSW,256,6.9,6.9,36,0.00,,,0.00,WeatherDisplay:10.37,2013-03-29 20:05:00,
2013-03-29 16:07:00,50.9,24.9,30.28,WSW,255,9.0,9.0,36,0.00,,,0.00,WeatherDisplay:10.37,2013-03-29 20:07:00,
2013-03-29 16:08:00,50.9,24.2,30.28,SW,236,9.2,9.2,35,0.00,,,0.00,WeatherDisplay:10.37,2013-03-29 20:08:00,
2013-03-29 16:09:00,50.9,24.9,30.28,WSW,242,10.4,10.4,36,0.00,,,0.00,WeatherDisplay:10.37,2013-03-29 20:09:00,
2013-03-29 16:10:00,51.0,25.0,30.28,WNW,283,6.9,6.9,36,0.00,,,0.00,WeatherDisplay:10.37,2013-03-29 20:10:00,
2013-03-29 16:12:00,51.1,25.7,30.28,WNW,290,3.5,3.5,37,0.00,,,0.00,WeatherDisplay:10.37,2013-03-29 20:12:00,
2013-03-29 16:14:00,51.3,25.9,30.28,NW,306,8.1,8.1,37,0.00,,,0.00,WeatherDisplay:10.37,2013-03-29 20:14:00,
2013-03-29 16:15:00,51.5,26.1,30.28,West,261,6.9,6.9,37,0.00,,,0.00,WeatherDisplay:10.37,2013-03-29 20:15:00,
2013-03-29 16:17:00,51.7,26.2,30.28,WSW,241,9.2,9.2,37,0.00,,,0.00,WeatherDisplay:10.37,2013-03-29 20:17:00,
2013-03-29 16:19:00,51.9,25.1,30.28,SW,229,11.5,11.5,35,0.00,,,0.00,WeatherDisplay:10.37,2013-03-29 20:19:00,
2013-03-29 16:20:00,51.9,25.1,30.28,WSW,253,8.0,12.0,35,0.00,,,0.00,WeatherDisplay:10.37,2013-03-29 20:20:00,
2013-03-29 16:21:00,51.9,25.1,30.28,WSW,248,10.4,10.4,35,0.00,,,0.00,WeatherDisplay:10.37,2013-03-29 20:21:00,
2013-03-29 16:22:00,51.9,25.8,30.28,West,281,11.5,11.5,36,0.00,,,0.00,WeatherDisplay:10.37,2013-03-29 20:22:00,
2013-03-29 16:24:00,52.3,28.1,30.28,SW,229,10.4,10.4,39,0.00,,,0.00,WeatherDisplay:10.37,2013-03-29 20:24:00,
2013-03-29 16:25:00,52.3,28.1,30.28,West,275,11.5,11.5,39,0.00,,,0.00,WeatherDisplay:10.37,2013-03-29 20:25:00,
2013-03-29 16:26:00,52.6,27.0,30.28,WSW,255,12.0,12.0,37,0.00,,,0.00,WeatherDisplay:10.37,2013-03-29 20:26:00,
2013-03-29 16:28:00,52.4,26.2,30.28,WSW,239,12.7,12.7,36,0.00,,,0.00,WeatherDisplay:10.37,2013-03-29 20:28:00,
2013-03-29 16:29:00,52.0,25.8,30.28,SW,222,11.5,11.5,36,0.00,,,0.00,WeatherDisplay:10.37,2013-03-29 20:29:00,
2013-03-29 16:30:00,51.9,25.8,30.28,SW,221,12.7,12.7,36,0.00,,,0.00,WeatherDisplay:10.37,2013-03-29 20:30:00,
2013-03-29 16:31:00,51.6,26.1,30.28,WSW,243,11.5,11.5,37,0.00,,,0.00,WeatherDisplay:10.37,2013-03-29 20:31:00,
2013-03-29 16:33:00,51.1,25.7,30.28,SW,217,12.7,12.7,37,0.00,,,0.00,WeatherDisplay:10.37,2013-03-29 20:33:00,
2013-03-29 16:34:00,50.9,24.9,30.28,WSW,258,12.7,12.7,36,0.00,,,0.00,WeatherDisplay:10.37,2013-03-29 20:34:00,
2013-03-29 16:35:00,50.8,24.8,30.28,WSW,255,11.5,11.5,36,0.00,,,0.00,WeatherDisplay:10.37,2013-03-29 20:35:00,
2013-03-29 16:36:00,50.6,25.9,30.28,WSW,242,11.5,11.5,38,0.00,,,0.00,WeatherDisplay:10.37,2013-03-29 20:36:00,
2013-03-29 16:38:00,50.5,25.2,30.28,WSW,239,11.5,11.5,37,0.00,,,0.00,WeatherDisplay:10.37,2013-03-29 20:38:00,
2013-03-29 16:40:00,50.4,25.7,30.28,WSW,248,6.0,12.0,38,0.00,,,0.00,WeatherDisplay:10.37,2013-03-29 20:40:00,
2013-03-29 16:42:00,50.3,25.0,30.28,WSW,240,9.2,9.2,37,0.00,,,0.00,WeatherDisplay:10.37,2013-03-29 20:42:00,
2013-03-29 16:43:00,50.2,25.5,30.28,WSW,258,6.9,6.9,38,0.00,,,0.00,WeatherDisplay:10.37,2013-03-29 20:43:00,
2013-03-29 16:45:00,50.3,25.6,30.28,WSW,253,9.2,9.2,38,0.00,,,0.00,WeatherDisplay:10.37,2013-03-29 20:45:00,
2013-03-29 16:47:00,50.4,25.7,30.28,West,260,10.4,10.4,38,0.00,,,0.00,WeatherDisplay:10.37,2013-03-29 20:47:00,
2013-03-29 16:48:00,50.3,25.0,30.28,WSW,238,8.1,8.1,37,0.00,,,0.00,WeatherDisplay:10.37,2013-03-29 20:48:00,
2013-03-29 16:50:00,50.2,24.9,30.28,West,259,11.5,11.5,37,0.00,,,0.00,WeatherDisplay:10.37,2013-03-29 20:50:00,
2013-03-29 16:52:00,50.2,24.9,30.28,SW,234,11.5,11.5,37,0.00,,,0.00,WeatherDisplay:10.37,2013-03-29 20:52:00,
2013-03-29 16:54:00,50.2,24.9,30.28,West,259,11.5,11.5,37,0.00,,,0.00,WeatherDisplay:10.37,2013-03-29 20:54:00,
2013-03-29 16:55:00,50.2,25.5,30.28,West,274,11.5,11.5,38,0.00,,,0.00,WeatherDisplay:10.37,2013-03-29 20:55:00,
2013-03-29 16:58:00,50.5,24.5,30.27,WSW,253,12.7,12.7,36,0.00,,,0.00,WeatherDisplay:10.37,2013-03-29 20:58:00,
2013-03-29 16:59:00,50.5,24.5,30.27,SW,229,11.5,11.5,36,0.00,,,0.00,WeatherDisplay:10.37,2013-03-29 20:59:00,
2013-03-29 17:00:00,50.7,25.3,30.27,WNW,285,10.4,10.4,37,0.00,,,0.00,WeatherDisplay:10.37,2013-03-29 21:00:00,
2013-03-29 17:02:00,50.9,26.2,30.27,SW,219,9.2,9.2,38,0.00,,,0.00,WeatherDisplay:10.37,2013-03-29 21:02:00,
2013-03-29 17:03:00,51.2,27.1,30.27,West,278,8.1,8.1,39,0.00,,,0.00,WeatherDisplay:10.37,2013-03-29 21:03:00,
2013-03-29 17:04:00,51.5,27.3,30.27,WSW,251,5.0,5.0,39,0.00,,,0.00,WeatherDisplay:10.37,2013-03-29 21:04:00,
2013-03-29 17:05:00,51.6,27.4,30.27,West,269,10.4,10.4,39,0.00,,,0.00,WeatherDisplay:10.37,2013-03-29 21:05:00,
2013-03-29 17:07:00,51.8,26.3,30.27,NNW,344,8.1,8.1,37,0.00,,,0.00,WeatherDisplay:10.37,2013-03-29 21:07:00,
2013-03-29 17:09:00,51.6,25.5,30.27,WSW,241,10.4,10.4,36,0.00,,,0.00,WeatherDisplay:10.37,2013-03-29 21:09:00,
2013-03-29 17:10:00,51.4,25.3,30.27,WSW,253,8.1,8.1,36,0.00,,,0.00,WeatherDisplay:10.37,2013-03-29 21:10:00,
2013-03-29 17:11:00,51.3,25.9,30.27,WSW,254,10.0,10.0,37,0.00,,,0.00,WeatherDisplay:10.37,2013-03-29 21:11:00,
2013-03-29 17:12:00,51.2,25.1,30.27,SW,231,13.8,13.8,36,0.00,,,0.00,WeatherDisplay:10.37,2013-03-29 21:12:00,
2013-03-29 17:14:00,51.0,25.6,30.27,WSW,246,6.9,6.9,37,0.00,,,0.00,WeatherDisplay:10.37,2013-03-29 21:14:00,
2013-03-29 17:15:00,51.0,26.3,30.27,SW,219,6.9,6.9,38,0.00,,,0.00,WeatherDisplay:10.37,2013-03-29 21:15:00,
2013-03-29 17:17:00,51.0,26.9,30.27,WNW,296,11.5,11.5,39,0.00,,,0.00,WeatherDisplay:10.37,2013-03-29 21:17:00,
2013-03-29 17:18:00,51.0,26.9,30.27,West,279,8.1,8.1,39,0.00,,,0.00,WeatherDisplay:10.37,2013-03-29 21:18:00,
2013-03-29 17:19:00,51.1,27.6,30.27,West,265,11.5,11.5,40,0.00,,,0.00,WeatherDisplay:10.37,2013-03-29 21:19:00,
2013-03-29 17:20:00,51.2,27.7,30.27,WSW,254,11.5,11.5,40,0.00,,,0.00,WeatherDisplay:10.37,2013-03-29 21:20:00,
2013-03-29 17:22:00,51.3,27.2,30.27,WNW,299,15.0,15.0,39,0.00,,,0.00,WeatherDisplay:10.37,2013-03-29 21:22:00,
2013-03-29 17:23:00,51.3,27.2,30.27,NNW,327,15.0,15.0,39,0.00,,,0.00,WeatherDisplay:10.37,2013-03-29 21:23:00,
2013-03-29 17:25:00,51.3,27.2,30.27,WSW,257,10.4,10.4,39,0.00,,,0.00,WeatherDisplay:10.37,2013-03-29 21:25:00,
2013-03-29 17:27:00,51.3,28.4,30.27,WSW,243,9.2,9.2,41,0.00,,,0.00,WeatherDisplay:10.37,2013-03-29 21:27:00,
2013-03-29 17:28:00,51.3,28.4,30.27,WNW,290,11.5,11.5,41,0.00,,,0.00,WeatherDisplay:10.37,2013-03-29 21:28:00,
2013-03-29 17:30:00,51.2,27.7,30.27,West,267,7.0,14.0,40,0.00,,,0.00,WeatherDisplay:10.37,2013-03-29 21:30:00,
2013-03-29 17:32:00,51.1,27.6,30.27,SW,226,9.2,9.2,40,0.00,,,0.00,WeatherDisplay:10.37,2013-03-29 21:32:00,
2013-03-29 17:33:00,51.0,27.5,30.27,WNW,301,7.0,7.0,40,0.00,,,0.00,WeatherDisplay:10.37,2013-03-29 21:33:00,
2013-03-29 17:35:00,50.8,26.7,30.27,WSW,251,9.2,9.2,39,0.00,,,0.00,WeatherDisplay:10.37,2013-03-29 21:35:00,
2013-03-29 17:37:00,50.4,26.3,30.27,SSW,203,10.4,10.4,39,0.00,,,0.00,WeatherDisplay:10.37,2013-03-29 21:37:00,
2013-03-29 17:38:00,50.3,26.3,30.27,WSW,253,8.1,8.1,39,0.00,,,0.00,WeatherDisplay:10.37,2013-03-29 21:38:00,
2013-03-29 17:40:00,50.0,26.0,30.27,West,261,11.0,11.0,39,0.00,,,0.00,WeatherDisplay:10.37,2013-03-29 21:40:00,
2013-03-29 17:43:00,49.9,25.9,30.27,WSW,237,8.1,8.1,39,0.00,,,0.00,WeatherDisplay:10.37,2013-03-29 21:43:00,
2013-03-29 17:44:00,49.8,26.4,30.27,WSW,244,9.2,9.2,40,0.00,,,0.00,WeatherDisplay:10.37,2013-03-29 21:44:00,
2013-03-29 17:47:00,49.7,26.9,30.27,West,260,11.5,11.5,41,0.00,,,0.00,WeatherDisplay:10.37,2013-03-29 21:47:00,
2013-03-29 17:48:00,49.7,26.3,30.27,West,265,11.5,11.5,40,0.00,,,0.00,WeatherDisplay:10.37,2013-03-29 21:48:00,
2013-03-29 17:49:00,49.6,26.8,30.27,WSW,258,10.4,10.4,41,0.00,,,0.00,WeatherDisplay:10.37,2013-03-29 21:49:00,
2013-03-29 17:52:00,49.2,28.2,30.28,SW,229,12.7,12.7,44,0.00,,,0.00,WeatherDisplay:10.37,2013-03-29 21:52:00,
2013-03-29 17:53:00,48.9,29.5,30.28,South,182,15.0,15.0,47,0.00,,,0.00,WeatherDisplay:10.37,2013-03-29 21:53:00,
2013-03-29 17:55:00,48.7,29.9,30.28,WSW,248,9.0,17.0,48,0.00,,,0.00,WeatherDisplay:10.37,2013-03-29 21:55:00,
2013-03-29 17:57:00,48.3,30.5,30.28,WSW,249,11.5,11.5,50,0.00,,,0.00,WeatherDisplay:10.37,2013-03-29 21:57:00,
2013-03-29 17:58:00,48.0,31.2,30.28,WSW,248,13.8,13.8,52,0.00,,,0.00,WeatherDisplay:10.37,2013-03-29 21:58:00,
2013-03-29 17:59:00,47.9,31.1,30.28,SW,223,12.0,12.0,52,0.00,,,0.00,WeatherDisplay:10.37,2013-03-29 21:59:00,
2013-03-29 18:00:00,47.7,31.9,30.28,WSW,243,16.1,16.1,54,0.00,,,0.00,WeatherDisplay:10.37,2013-03-29 22:00:00,
2013-03-29 18:02:00,47.2,31.8,30.28,WSW,241,13.8,13.8,55,0.00,,,0.00,WeatherDisplay:10.37,2013-03-29 22:02:00,
2013-03-29 18:04:00,47.0,32.1,30.28,WSW,241,11.5,11.5,56,0.00,,,0.00,WeatherDisplay:10.37,2013-03-29 22:04:00,
2013-03-29 18:05:00,46.7,32.3,30.28,SSW,204,16.1,16.1,57,0.00,,,0.00,WeatherDisplay:10.37,2013-03-29 22:05:00,
2013-03-29 18:07:00,46.4,32.4,30.28,West,271,15.0,15.0,58,0.00,,,0.00,WeatherDisplay:10.37,2013-03-29 22:07:00,
2013-03-29 18:09:00,46.3,32.7,30.28,West,279,11.5,11.5,59,0.00,,,0.00,WeatherDisplay:10.37,2013-03-29 22:09:00,
2013-03-29 18:10:00,46.2,32.7,30.28,WSW,251,6.0,6.0,59,0.00,,,0.00,WeatherDisplay:10.37,2013-03-29 22:10:00,
2013-03-29 18:13:00,46.1,33.4,30.28,WSW,253,11.5,11.5,61,0.00,,,0.00,WeatherDisplay:10.37,2013-03-29 22:13:00,
2013-03-29 18:14:00,45.9,33.2,30.28,West,275,11.5,11.5,61,0.00,,,0.00,WeatherDisplay:10.37,2013-03-29 22:14:00,
2013-03-29 18:16:00,45.9,33.6,30.28,West,264,13.8,13.8,62,0.00,,,0.00,WeatherDisplay:10.37,2013-03-29 22:16:00,
2013-03-29 18:18:00,45.7,33.4,30.28,West,259,9.2,9.2,62,0.00,,,0.00,WeatherDisplay:10.37,2013-03-29 22:18:00,
2013-03-29 18:20:00,45.5,33.6,30.29,SW,219,13.8,13.8,63,0.00,,,0.00,WeatherDisplay:10.37,2013-03-29 22:20:00,
2013-03-29 18:21:00,45.3,33.4,30.29,West,267,9.2,9.2,63,0.00,,,0.00,WeatherDisplay:10.37,2013-03-29 22:21:00,
2013-03-29 18:23:00,45.2,33.3,30.29,WSW,244,14.0,14.0,63,0.00,,,0.00,WeatherDisplay:10.37,2013-03-29 22:23:00,
2013-03-29 18:25:00,45.0,33.5,30.29,WSW,241,14.0,14.0,64,0.00,,,0.00,WeatherDisplay:10.37,2013-03-29 22:25:00,
2013-03-29 18:27:00,44.7,33.3,30.29,SW,214,10.4,10.4,64,0.00,,,0.00,WeatherDisplay:10.37,2013-03-29 22:27:00,
2013-03-29 18:29:00,44.5,33.8,30.29,West,265,10.4,10.4,66,0.00,,,0.00,WeatherDisplay:10.37,2013-03-29 22:29:00,
2013-03-29 18:30:00,44.5,33.8,30.29,West,263,9.2,9.2,66,0.00,,,0.00,WeatherDisplay:10.37,2013-03-29 22:30:00,
2013-03-29 18:32:00,44.4,33.7,30.29,WSW,250,10.0,10.0,66,0.00,,,0.00,WeatherDisplay:10.37,2013-03-29 22:32:00,
2013-03-29 18:34:00,44.2,33.6,30.29,SW,232,11.5,11.5,66,0.00,,,0.00,WeatherDisplay:10.37,2013-03-29 22:34:00,
2013-03-29 18:35:00,44.1,33.8,30.29,WSW,250,11.5,11.5,67,0.00,,,0.00,WeatherDisplay:10.37,2013-03-29 22:35:00,
2013-03-29 18:37:00,44.0,33.7,30.29,SW,221,13.8,13.8,67,0.00,,,0.00,WeatherDisplay:10.37,2013-03-29 22:37:00,
2013-03-29 18:39:00,43.9,34.0,30.29,SW,231,10.4,10.4,68,0.00,,,0.00,WeatherDisplay:10.37,2013-03-29 22:39:00,
2013-03-29 18:40:00,43.8,33.9,30.29,SW,217,12.7,12.7,68,0.00,,,0.00,WeatherDisplay:10.37,2013-03-29 22:40:00,
2013-03-29 18:42:00,43.7,34.2,30.29,SW,214,13.8,13.8,69,0.00,,,0.00,WeatherDisplay:10.37,2013-03-29 22:42:00,
2013-03-29 18:44:00,43.6,34.1,30.29,WSW,239,11.5,11.5,69,0.00,,,0.00,WeatherDisplay:10.37,2013-03-29 22:44:00,
2013-03-29 18:45:00,43.5,34.0,30.29,SW,227,6.9,6.9,69,0.00,,,0.00,WeatherDisplay:10.37,2013-03-29 22:45:00,
2013-03-29 18:47:00,43.5,34.4,30.29,WSW,253,10.4,10.4,70,0.00,,,0.00,WeatherDisplay:10.37,2013-03-29 22:47:00,
2013-03-29 18:49:00,43.4,34.6,30.29,WSW,250,8.1,8.1,71,0.00,,,0.00,WeatherDisplay:10.37,2013-03-29 22:49:00,
2013-03-29 18:50:00,43.4,34.6,30.29,WSW,242,7.0,7.0,71,0.00,,,0.00,WeatherDisplay:10.37,2013-03-29 22:50:00,
2013-03-29 18:51:00,43.4,34.6,30.29,WSW,256,6.9,6.9,71,0.00,,,0.00,WeatherDisplay:10.37,2013-03-29 22:51:00,
2013-03-29 18:53:00,43.4,34.6,30.29,SW,231,9.0,9.0,71,0.00,,,0.00,WeatherDisplay:10.37,2013-03-29 22:53:00,
2013-03-29 18:54:00,43.3,34.5,30.29,WSW,249,4.6,4.6,71,0.00,,,0.00,WeatherDisplay:10.37,2013-03-29 22:54:00,
2013-03-29 18:56:00,43.3,34.9,30.29,West,265,5.8,5.8,72,0.00,,,0.00,WeatherDisplay:10.37,2013-03-29 22:56:00,
2013-03-29 18:58:00,43.3,34.9,30.29,West,264,9.2,9.2,72,0.00,,,0.00,WeatherDisplay:10.37,2013-03-29 22:58:00,
2013-03-29 18:59:00,43.2,34.8,30.29,WSW,243,9.2,9.2,72,0.00,,,0.00,WeatherDisplay:10.37,2013-03-29 22:59:00,
2013-03-29 19:01:00,43.1,34.7,30.29,WSW,244,11.5,11.5,72,0.00,,,0.00,WeatherDisplay:10.37,2013-03-29 23:01:00,
2013-03-29 19:02:00,43.1,34.7,30.29,WSW,243,11.5,11.5,72,0.00,,,0.00,WeatherDisplay:10.37,2013-03-29 23:02:00,
2013-03-29 19:03:00,42.9,34.5,30.29,SW,216,9.0,9.0,72,0.00,,,0.00,WeatherDisplay:10.37,2013-03-29 23:03:00,
2013-03-29 19:05:00,42.9,34.8,30.29,WNW,297,9.2,9.2,73,0.00,,,0.00,WeatherDisplay:10.37,2013-03-29 23:05:00,
2013-03-29 19:06:00,42.8,34.7,30.29,WSW,242,9.2,9.2,73,0.00,,,0.00,WeatherDisplay:10.37,2013-03-29 23:06:00,
2013-03-29 19:07:00,42.8,34.7,30.29,SW,234,5.0,5.0,73,0.00,,,0.00,WeatherDisplay:10.37,2013-03-29 23:07:00,
2013-03-29 19:08:00,42.7,35.0,30.29,WNW,289,10.0,10.0,74,0.00,,,0.00,WeatherDisplay:10.37,2013-03-29 23:08:00,
2013-03-29 19:10:00,42.6,34.9,30.29,West,262,11.5,11.5,74,0.00,,,0.00,WeatherDisplay:10.37,2013-03-29 23:10:00,
2013-03-29 19:12:00,42.5,34.8,30.29,WSW,254,6.9,6.9,74,0.00,,,0.00,WeatherDisplay:10.37,2013-03-29 23:12:00,
2013-03-29 19:13:00,42.5,34.8,30.29,WNW,300,13.0,13.0,74,0.00,,,0.00,WeatherDisplay:10.37,2013-03-29 23:13:00,
2013-03-29 19:15:00,42.4,35.0,30.29,West,270,12.7,12.7,75,0.00,,,0.00,WeatherDisplay:10.37,2013-03-29 23:15:00,
2013-03-29 19:17:00,42.3,34.9,30.29,WSW,243,7.0,7.0,75,0.00,,,0.00,WeatherDisplay:10.37,2013-03-29 23:17:00,
2013-03-29 19:19:00,42.2,34.8,30.29,WSW,254,11.5,11.5,75,0.00,,,0.00,WeatherDisplay:10.37,2013-03-29 23:19:00,
2013-03-29 19:20:00,42.1,34.7,30.29,SW,219,9.2,9.2,75,0.00,,,0.00,WeatherDisplay:10.37,2013-03-29 23:20:00,
2013-03-29 19:22:00,42.0,35.0,30.29,WSW,250,8.1,8.1,76,0.00,,,0.00,WeatherDisplay:10.37,2013-03-29 23:22:00,
2013-03-29 19:23:00,42.0,35.0,30.29,WNW,282,6.9,6.9,76,0.00,,,0.00,WeatherDisplay:10.37,2013-03-29 23:23:00,
2013-03-29 19:24:00,41.9,34.9,30.29,WSW,245,8.1,8.1,76,0.00,,,0.00,WeatherDisplay:10.37,2013-03-29 23:24:00,
2013-03-29 19:25:00,41.9,34.9,30.29,WSW,254,8.1,8.1,76,0.00,,,0.00,WeatherDisplay:10.37,2013-03-29 23:25:00,
2013-03-29 19:27:00,41.8,34.8,30.29,WSW,253,11.5,11.5,76,0.00,,,0.00,WeatherDisplay:10.37,2013-03-29 23:27:00,
2013-03-29 19:28:00,41.7,34.7,30.29,West,272,9.2,9.2,76,0.00,,,0.00,WeatherDisplay:10.37,2013-03-29 23:28:00,
2013-03-29 19:29:00,41.7,35.0,30.29,WSW,253,6.9,6.9,77,0.00,,,0.00,WeatherDisplay:10.37,2013-03-29 23:29:00,
2013-03-29 19:30:00,41.7,35.0,30.29,West,277,6.9,6.9,77,0.00,,,0.00,WeatherDisplay:10.37,2013-03-29 23:30:00,
2013-03-29 19:33:00,41.6,34.9,30.29,West,260,11.5,11.5,77,0.00,,,0.00,WeatherDisplay:10.37,2013-03-29 23:33:00,
2013-03-29 19:34:00,41.5,34.8,30.29,WSW,238,11.5,11.5,77,0.00,,,0.00,WeatherDisplay:10.37,2013-03-29 23:34:00,
2013-03-29 19:35:00,41.5,34.8,30.29,SW,226,10.4,10.4,77,0.00,,,0.00,WeatherDisplay:10.37,2013-03-29 23:35:00,
2013-03-29 19:38:00,41.5,34.8,30.29,NW,305,6.9,6.9,77,0.00,,,0.00,WeatherDisplay:10.37,2013-03-29 23:38:00,
2013-03-29 19:39:00,41.4,34.7,30.29,West,262,10.0,10.0,77,0.00,,,0.00,WeatherDisplay:10.37,2013-03-29 23:39:00,
2013-03-29 19:41:00,41.4,34.7,30.29,WSW,239,9.2,9.2,77,0.00,,,0.00,WeatherDisplay:10.37,2013-03-29 23:41:00,
2013-03-29 19:44:00,41.3,35.0,30.29,WSW,257,8.1,8.1,78,0.00,,,0.00,WeatherDisplay:10.37,2013-03-29 23:44:00,
2013-03-29 19:45:00,41.3,35.0,30.29,West,262,6.9,6.9,78,0.00,,,0.00,WeatherDisplay:10.37,2013-03-29 23:45:00,
2013-03-29 19:46:00,41.3,35.0,30.29,WSW,253,8.0,8.0,78,0.00,,,0.00,WeatherDisplay:10.37,2013-03-29 23:46:00,
2013-03-29 19:49:00,41.2,34.9,30.29,WSW,247,9.2,9.2,78,0.00,,,0.00,WeatherDisplay:10.37,2013-03-29 23:49:00,
2013-03-29 19:50:00,41.2,35.2,30.29,SW,219,7.0,7.0,79,0.00,,,0.00,WeatherDisplay:10.37,2013-03-29 23:50:00,
2013-03-29 19:52:00,41.2,35.2,30.29,West,264,9.2,9.2,79,0.00,,,0.00,WeatherDisplay:10.37,2013-03-29 23:52:00,
2013-03-29 19:54:00,41.1,35.1,30.29,West,260,4.6,4.6,79,0.00,,,0.00,WeatherDisplay:10.37,2013-03-29 23:54:00,
2013-03-29 19:55:00,41.1,35.1,30.29,West,267,3.5,3.5,79,0.00,,,0.00,WeatherDisplay:10.37,2013-03-29 23:55:00,
2013-03-29 19:57:00,41.1,35.1,30.30,West,267,8.1,8.1,79,0.00,,,0.00,WeatherDisplay:10.37,2013-03-29 23:57:00,
2013-03-29 19:59:00,41.0,35.3,30.30,WSW,252,6.9,6.9,80,0.00,,,0.00,WeatherDisplay:10.37,2013-03-29 23:59:00,
2013-03-29 20:00:00,41.0,35.3,30.30,West,260,6.9,6.9,80,0.00,,,0.00,WeatherDisplay:10.37,2013-03-30 00:00:00,
2013-03-29 20:02:00,41.0,35.3,30.30,WSW,253,4.6,4.6,80,0.00,,,0.00,WeatherDisplay:10.37,2013-03-30 00:02:00,
2013-03-29 20:04:00,40.9,35.2,30.29,WSW,253,3.5,3.5,80,0.00,,,0.00,WeatherDisplay:10.37,2013-03-30 00:04:00,
2013-03-29 20:05:00,40.9,35.2,30.30,WSW,253,2.0,5.0,80,0.00,,,0.00,WeatherDisplay:10.37,2013-03-30 00:05:00,
2013-03-29 20:07:00,40.9,35.5,30.30,WSW,239,3.0,3.0,81,0.00,,,0.00,WeatherDisplay:10.37,2013-03-30 00:07:00,
2013-03-29 20:10:00,40.8,35.4,30.30,West,260,2.3,2.3,81,0.00,,,0.00,WeatherDisplay:10.37,2013-03-30 00:10:00,
2013-03-29 20:11:00,40.8,35.4,30.30,WSW,257,4.6,4.6,81,0.00,,,0.00,WeatherDisplay:10.37,2013-03-30 00:11:00,
2013-03-29 20:12:00,40.7,35.3,30.30,WSW,255,5.0,5.0,81,0.00,,,0.00,WeatherDisplay:10.37,2013-03-30 00:12:00,
2013-03-29 20:15:00,40.7,35.6,30.30,SW,234,4.6,4.6,82,0.00,,,0.00,WeatherDisplay:10.37,2013-03-30 00:15:00,
2013-03-29 20:17:00,40.6,35.2,30.30,WSW,250,4.6,4.6,81,0.00,,,0.00,WeatherDisplay:10.37,2013-03-30 00:17:00,
2013-03-29 20:20:00,40.6,35.5,30.30,NW,313,6.9,6.9,82,0.00,,,0.00,WeatherDisplay:10.37,2013-03-30 00:20:00,
2013-03-29 20:22:00,40.5,35.4,30.30,West,276,5.8,5.8,82,0.00,,,0.00,WeatherDisplay:10.37,2013-03-30 00:22:00,
2013-03-29 20:25:00,40.4,35.3,30.30,WSW,256,3.5,3.5,82,0.00,,,0.00,WeatherDisplay:10.37,2013-03-30 00:25:00,
2013-03-29 20:27:00,40.4,35.3,30.30,West,268,3.5,3.5,82,0.00,,,0.00,WeatherDisplay:10.37,2013-03-30 00:27:00,
2013-03-29 20:28:00,40.4,35.3,30.30,WSW,253,3.5,3.5,82,0.00,,,0.00,WeatherDisplay:10.37,2013-03-30 00:28:00,
2013-03-29 20:30:00,40.4,35.3,30.30,WSW,257,3.5,3.5,82,0.00,,,0.00,WeatherDisplay:10.37,2013-03-30 00:30:00,
2013-03-29 20:32:00,40.3,35.2,30.30,WSW,243,3.5,3.5,82,0.00,,,0.00,WeatherDisplay:10.37,2013-03-30 00:32:00,
2013-03-29 20:33:00,40.3,35.5,30.30,West,259,3.5,3.5,83,0.00,,,0.00,WeatherDisplay:10.37,2013-03-30 00:33:00,
2013-03-29 20:35:00,40.3,35.5,30.30,West,262,3.5,3.5,83,0.00,,,0.00,WeatherDisplay:10.37,2013-03-30 00:35:00,
2013-03-29 20:37:00,40.2,35.4,30.30,WSW,257,4.6,4.6,83,0.00,,,0.00,WeatherDisplay:10.37,2013-03-30 00:37:00,
2013-03-29 20:38:00,40.2,35.4,30.30,WSW,257,2.3,2.3,83,0.00,,,0.00,WeatherDisplay:10.37,2013-03-30 00:38:00,
2013-03-29 20:40:00,40.2,35.4,30.30,West,262,3.0,3.0,83,0.00,,,0.00,WeatherDisplay:10.37,2013-03-30 00:40:00,
2013-03-29 20:41:00,40.1,35.4,30.30,West,262,3.0,3.0,83,0.00,,,0.00,WeatherDisplay:10.37,2013-03-30 00:41:00,
2013-03-29 20:43:00,40.1,35.4,30.30,West,271,6.9,6.9,83,0.00,,,0.00,WeatherDisplay:10.37,2013-03-30 00:43:00,
2013-03-29 20:46:00,40.0,35.3,30.30,WSW,253,3.5,3.5,83,0.00,,,0.00,WeatherDisplay:10.37,2013-03-30 00:46:00,
2013-03-29 20:48:00,40.0,35.3,30.30,WSW,241,4.0,4.0,83,0.00,,,0.00,WeatherDisplay:10.37,2013-03-30 00:48:00,
2013-03-29 20:51:00,39.9,35.2,30.30,WSW,249,5.8,5.8,83,0.00,,,0.00,WeatherDisplay:10.37,2013-03-30 00:51:00,
2013-03-29 20:54:00,39.9,35.5,30.30,WSW,247,3.5,3.5,84,0.00,,,0.00,WeatherDisplay:10.37,2013-03-30 00:54:00,
2013-03-29 20:57:00,39.9,35.5,30.31,WSW,245,4.6,4.6,84,0.00,,,0.00,WeatherDisplay:10.37,2013-03-30 00:57:00,
2013-03-29 20:59:00,39.8,35.4,30.30,WSW,241,5.8,5.8,84,0.00,,,0.00,WeatherDisplay:10.37,2013-03-30 00:59:00,
2013-03-29 21:02:00,39.8,35.4,30.31,WSW,258,4.6,4.6,84,0.00,,,0.00,WeatherDisplay:10.37,2013-03-30 01:02:00,
2013-03-29 21:03:00,39.8,35.4,30.31,WSW,248,3.5,3.5,84,0.00,,,0.00,WeatherDisplay:10.37,2013-03-30 01:03:00,
2013-03-29 21:04:00,39.8,35.4,30.31,WSW,256,3.5,3.5,84,0.00,,,0.00,WeatherDisplay:10.37,2013-03-30 01:04:00,
2013-03-29 21:05:00,39.8,35.4,30.31,West,266,3.5,3.5,84,0.00,,,0.00,WeatherDisplay:10.37,2013-03-30 01:05:00,
2013-03-29 21:07:00,39.8,35.4,30.31,WSW,248,3.5,3.5,84,0.00,,,0.00,WeatherDisplay:10.37,2013-03-30 01:07:00,
2013-03-29 21:08:00,39.8,35.4,30.31,SW,217,3.5,3.5,84,0.00,,,0.00,WeatherDisplay:10.37,2013-03-30 01:08:00,
2013-03-29 21:09:00,39.8,35.4,30.31,WSW,257,8.1,8.1,84,0.00,,,0.00,WeatherDisplay:10.37,2013-03-30 01:09:00,
2013-03-29 21:10:00,39.8,35.4,30.31,WSW,254,8.1,8.1,84,0.00,,,0.00,WeatherDisplay:10.37,2013-03-30 01:10:00,
2013-03-29 21:12:00,39.8,35.4,30.31,WSW,244,4.0,4.0,84,0.00,,,0.00,WeatherDisplay:10.37,2013-03-30 01:12:00,
2013-03-29 21:13:00,39.8,35.4,30.31,SW,217,6.9,6.9,84,0.00,,,0.00,WeatherDisplay:10.37,2013-03-30 01:13:00,
2013-03-29 21:14:00,39.8,35.4,30.31,WSW,250,4.6,4.6,84,0.00,,,0.00,WeatherDisplay:10.37,2013-03-30 01:14:00,
2013-03-29 21:15:00,39.8,35.4,30.31,WSW,243,6.9,6.9,84,0.00,,,0.00,WeatherDisplay:10.37,2013-03-30 01:15:00,
2013-03-29 21:17:00,39.7,35.3,30.31,West,281,4.6,4.6,84,0.00,,,0.00,WeatherDisplay:10.37,2013-03-30 01:17:00,
2013-03-29 21:18:00,39.7,35.3,30.31,West,264,5.8,5.8,84,0.00,,,0.00,WeatherDisplay:10.37,2013-03-30 01:18:00,
2013-03-29 21:19:00,39.7,35.3,30.31,West,260,5.8,5.8,84,0.00,,,0.00,WeatherDisplay:10.37,2013-03-30 01:19:00,
2013-03-29 21:20:00,39.7,35.3,30.31,WSW,240,3.5,3.5,84,0.00,,,0.00,WeatherDisplay:10.37,2013-03-30 01:20:00,
2013-03-29 21:22:00,39.7,35.3,30.31,West,265,2.3,2.3,84,0.00,,,0.00,WeatherDisplay:10.37,2013-03-30 01:22:00,
2013-03-29 21:23:00,39.7,35.6,30.31,West,260,2.3,2.3,85,0.00,,,0.00,WeatherDisplay:10.37,2013-03-30 01:23:00,
2013-03-29 21:24:00,39.7,35.6,30.31,West,262,2.3,2.3,85,0.00,,,0.00,WeatherDisplay:10.37,2013-03-30 01:24:00,
2013-03-29 21:25:00,39.7,35.6,30.31,West,261,2.3,2.3,85,0.00,,,0.00,WeatherDisplay:10.37,2013-03-30 01:25:00,
2013-03-29 21:27:00,39.6,35.5,30.31,WSW,256,3.5,3.5,85,0.00,,,0.00,WeatherDisplay:10.37,2013-03-30 01:27:00,
2013-03-29 21:28:00,39.6,35.5,30.32,West,262,3.0,3.0,85,0.00,,,0.00,WeatherDisplay:10.37,2013-03-30 01:28:00,
2013-03-29 21:29:00,39.6,35.5,30.31,WSW,250,3.5,3.5,85,0.00,,,0.00,WeatherDisplay:10.37,2013-03-30 01:29:00,
2013-03-29 21:30:00,39.6,35.5,30.31,WSW,254,3.5,3.5,85,0.00,,,0.00,WeatherDisplay:10.37,2013-03-30 01:30:00,
2013-03-29 21:33:00,39.6,35.5,30.32,WSW,245,3.5,3.5,85,0.00,,,0.00,WeatherDisplay:10.37,2013-03-30 01:33:00,
2013-03-29 21:35:00,39.5,35.4,30.32,WSW,255,2.3,2.3,85,0.00,,,0.00,WeatherDisplay:10.37,2013-03-30 01:35:00,
2013-03-29 21:38:00,39.5,35.4,30.32,WSW,247,3.5,3.5,85,0.00,,,0.00,WeatherDisplay:10.37,2013-03-30 01:38:00,
2013-03-29 21:40:00,39.5,35.4,30.32,WSW,252,3.5,4.0,85,0.00,,,0.00,WeatherDisplay:10.37,2013-03-30 01:40:00,
2013-03-29 21:41:00,39.5,35.4,30.31,WSW,242,5.8,5.8,85,0.00,,,0.00,WeatherDisplay:10.37,2013-03-30 01:41:00,
2013-03-29 21:43:00,39.6,35.5,30.31,WSW,254,5.8,5.8,85,0.00,,,0.00,WeatherDisplay:10.37,2013-03-30 01:43:00,
2013-03-29 21:44:00,39.6,35.5,30.32,WSW,247,5.8,5.8,85,0.00,,,0.00,WeatherDisplay:10.37,2013-03-30 01:44:00,
2013-03-29 21:45:00,39.6,35.5,30.31,WSW,258,3.5,3.5,85,0.00,,,0.00,WeatherDisplay:10.37,2013-03-30 01:45:00,
2013-03-29 21:47:00,39.6,35.5,30.32,WSW,256,3.5,3.5,85,0.00,,,0.00,WeatherDisplay:10.37,2013-03-30 01:47:00,
2013-03-29 21:49:00,39.6,35.8,30.32,WSW,255,3.5,3.5,86,0.00,,,0.00,WeatherDisplay:10.37,2013-03-30 01:49:00,
2013-03-29 21:50:00,39.6,35.8,30.32,WSW,241,4.0,4.0,86,0.00,,,0.00,WeatherDisplay:10.37,2013-03-30 01:50:00,
2013-03-29 21:52:00,39.6,35.8,30.32,West,262,3.5,3.5,86,0.00,,,0.00,WeatherDisplay:10.37,2013-03-30 01:52:00,
2013-03-29 21:54:00,39.6,35.8,30.32,West,262,3.5,3.5,86,0.00,,,0.00,WeatherDisplay:10.37,2013-03-30 01:54:00,
2013-03-29 21:55:00,39.6,35.8,30.32,West,262,2.3,2.3,86,0.00,,,0.00,WeatherDisplay:10.37,2013-03-30 01:55:00,
2013-03-29 21:57:00,39.6,35.8,30.32,West,265,5.8,5.8,86,0.00,,,0.00,WeatherDisplay:10.37,2013-03-30 01:57:00,
2013-03-29 21:59:00,39.6,35.8,30.32,West,259,4.6,4.6,86,0.00,,,0.00,WeatherDisplay:10.37,2013-03-30 01:59:00,
2013-03-29 22:00:00,39.6,35.8,30.32,West,260,3.5,3.5,86,0.00,,,0.00,WeatherDisplay:10.37,2013-03-30 02:00:00,
2013-03-29 22:01:00,39.6,35.8,30.32,WSW,246,3.5,3.5,86,0.00,,,0.00,WeatherDisplay:10.37,2013-03-30 02:01:00,
2013-03-29 22:02:00,39.6,35.8,30.32,West,275,2.3,2.3,86,0.00,,,0.00,WeatherDisplay:10.37,2013-03-30 02:02:00,
2013-03-29 22:04:00,39.6,35.8,30.32,West,259,5.8,5.8,86,0.00,,,0.00,WeatherDisplay:10.37,2013-03-30 02:04:00,
2013-03-29 22:06:00,39.6,35.8,30.32,WSW,242,3.5,3.5,86,0.00,,,0.00,WeatherDisplay:10.37,2013-03-30 02:06:00,
2013-03-29 22:07:00,39.6,35.8,30.32,SW,226,3.5,3.5,86,0.00,,,0.00,WeatherDisplay:10.37,2013-03-30 02:07:00,
2013-03-29 22:10:00,39.6,35.8,30.32,West,276,3.5,3.5,86,0.00,,,0.00,WeatherDisplay:10.37,2013-03-30 02:10:00,
2013-03-29 22:12:00,39.6,35.8,30.32,West,268,3.5,3.5,86,0.00,,,0.00,WeatherDisplay:10.37,2013-03-30 02:12:00,
2013-03-29 22:15:00,39.6,35.8,30.32,SW,217,5.0,5.0,86,0.00,,,0.00,WeatherDisplay:10.37,2013-03-30 02:15:00,
2013-03-29 22:17:00,39.5,35.7,30.32,WSW,255,3.5,3.5,86,0.00,,,0.00,WeatherDisplay:10.37,2013-03-30 02:17:00,
2013-03-29 22:20:00,39.5,35.7,30.32,WSW,244,2.3,2.3,86,0.00,,,0.00,WeatherDisplay:10.37,2013-03-30 02:20:00,
2013-03-29 22:22:00,39.5,35.7,30.32,West,280,1.2,1.2,86,0.00,,,0.00,WeatherDisplay:10.37,2013-03-30 02:22:00,
2013-03-29 22:23:00,39.5,35.7,30.32,West,273,1.2,1.2,86,0.00,,,0.00,WeatherDisplay:10.37,2013-03-30 02:23:00,
2013-03-29 22:25:00,39.5,35.7,30.32,WSW,255,2.3,2.3,86,0.00,,,0.00,WeatherDisplay:10.37,2013-03-30 02:25:00,
2013-03-29 22:27:00,39.5,35.7,30.32,WSW,257,2.3,2.3,86,0.00,,,0.00,WeatherDisplay:10.37,2013-03-30 02:27:00,
2013-03-29 22:28:00,39.5,35.7,30.32,WSW,257,2.3,2.3,86,0.00,,,0.00,WeatherDisplay:10.37,2013-03-30 02:28:00,
2013-03-29 22:30:00,39.5,35.7,30.32,West,264,1.2,0.0,86,0.00,,,0.00,WeatherDisplay:10.37,2013-03-30 02:30:00,
2013-03-29 22:33:00,39.5,35.7,30.32,West,262,1.2,1.2,86,0.00,,,0.00,WeatherDisplay:10.37,2013-03-30 02:33:00,
2013-03-29 22:35:00,39.5,35.7,30.32,WSW,257,1.2,1.2,86,0.00,,,0.00,WeatherDisplay:10.37,2013-03-30 02:35:00,
2013-03-29 22:38:00,39.5,35.7,30.32,WSW,257,3.5,3.5,86,0.00,,,0.00,WeatherDisplay:10.37,2013-03-30 02:38:00,
2013-03-29 22:40:00,39.4,35.6,30.32,West,262,1.2,0.0,86,0.00,,,0.00,WeatherDisplay:10.37,2013-03-30 02:40:00,
2013-03-29 22:43:00,39.4,35.6,30.32,West,264,1.2,0.0,86,0.00,,,0.00,WeatherDisplay:10.37,2013-03-30 02:43:00,
2013-03-29 22:45:00,39.4,35.6,30.32,West,264,1.2,1.2,86,0.00,,,0.00,WeatherDisplay:10.37,2013-03-30 02:45:00,
2013-03-29 22:48:00,39.4,35.6,30.32,West,264,1.2,1.2,86,0.00,,,0.00,WeatherDisplay:10.37,2013-03-30 02:48:00,
2013-03-29 22:49:00,39.4,35.6,30.32,West,264,1.2,1.2,86,0.00,,,0.00,WeatherDisplay:10.37,2013-03-30 02:49:00,
2013-03-29 22:50:00,39.4,35.6,30.32,West,265,3.5,3.5,86,0.00,,,0.00,WeatherDisplay:10.37,2013-03-30 02:50:00,
2013-03-29 22:54:00,39.4,35.9,30.32,West,270,3.5,3.5,87,0.00,,,0.00,WeatherDisplay:10.37,2013-03-30 02:54:00,
2013-03-29 22:55:00,39.4,35.9,30.32,West,271,2.3,2.3,87,0.00,,,0.00,WeatherDisplay:10.37,2013-03-30 02:55:00,
2013-03-29 22:59:00,39.4,35.9,30.32,WSW,253,2.3,2.3,87,0.00,,,0.00,WeatherDisplay:10.37,2013-03-30 02:59:00,
2013-03-29 23:00:00,39.4,35.9,30.32,SW,232,3.5,3.5,87,0.00,,,0.00,WeatherDisplay:10.37,2013-03-30 03:00:00,
2013-03-29 23:04:00,39.4,35.9,30.32,West,262,1.2,0.0,87,0.00,,,0.00,WeatherDisplay:10.37,2013-03-30 03:04:00,
2013-03-29 23:06:00,39.4,35.9,30.32,WSW,243,4.0,4.0,87,0.00,,,0.00,WeatherDisplay:10.37,2013-03-30 03:06:00,
2013-03-29 23:09:00,39.4,35.9,30.32,West,264,2.3,2.3,87,0.00,,,0.00,WeatherDisplay:10.37,2013-03-30 03:09:00,
2013-03-29 23:11:00,39.3,35.8,30.32,WSW,242,3.5,3.5,87,0.00,,,0.00,WeatherDisplay:10.37,2013-03-30 03:11:00,
2013-03-29 23:14:00,39.3,35.8,30.32,SW,227,3.5,3.5,87,0.00,,,0.00,WeatherDisplay:10.37,2013-03-30 03:14:00,
2013-03-29 23:15:00,39.3,35.8,30.32,WSW,258,2.3,2.3,87,0.00,,,0.00,WeatherDisplay:10.37,2013-03-30 03:15:00,
2013-03-29 23:16:00,39.3,35.8,30.32,West,259,2.3,0.0,87,0.00,,,0.00,WeatherDisplay:10.37,2013-03-30 03:16:00,
2013-03-29 23:19:00,39.3,35.8,30.32,West,265,2.3,0.0,87,0.00,,,0.00,WeatherDisplay:10.37,2013-03-30 03:19:00,
2013-03-29 23:20:00,39.3,35.8,30.32,West,263,0.0,0.0,87,0.00,,,0.00,WeatherDisplay:10.37,2013-03-30 03:20:00,
2013-03-29 23:21:00,39.3,35.8,30.32,WSW,254,1.2,1.2,87,0.00,,,0.00,WeatherDisplay:10.37,2013-03-30 03:21:00,
2013-03-29 23:24:00,39.3,35.8,30.32,WSW,238,2.3,2.3,87,0.00,,,0.00,WeatherDisplay:10.37,2013-03-30 03:24:00,
2013-03-29 23:25:00,39.3,35.8,30.32,WSW,242,2.3,2.3,87,0.00,,,0.00,WeatherDisplay:10.37,2013-03-30 03:25:00,
2013-03-29 23:27:00,39.3,35.8,30.32,WSW,248,2.3,2.3,87,0.00,,,0.00,WeatherDisplay:10.37,2013-03-30 03:27:00,
2013-03-29 23:29:00,39.3,35.8,30.32,WSW,238,1.2,1.2,87,0.00,,,0.00,WeatherDisplay:10.37,2013-03-30 03:29:00,
2013-03-29 23:30:00,39.3,35.8,30.32,WSW,241,1.2,1.2,87,0.00,,,0.00,WeatherDisplay:10.37,2013-03-30 03:30:00,
2013-03-29 23:31:00,39.3,35.8,30.31,WSW,240,0.0,0.0,87,0.00,,,0.00,WeatherDisplay:10.37,2013-03-30 03:31:00,
2013-03-29 23:32:00,39.3,35.8,30.31,WSW,241,0.0,0.0,87,0.00,,,0.00,WeatherDisplay:10.37,2013-03-30 03:32:00,
2013-03-29 23:35:00,39.3,35.8,30.31,West,260,1.2,1.2,87,0.00,,,0.00,WeatherDisplay:10.37,2013-03-30 03:35:00,
2013-03-29 23:36:00,39.3,35.8,30.31,West,260,0.0,0.0,87,0.00,,,0.00,WeatherDisplay:10.37,2013-03-30 03:36:00,
2013-03-29 23:38:00,39.3,35.8,30.31,West,260,0.0,0.0,87,0.00,,,0.00,WeatherDisplay:10.37,2013-03-30 03:38:00,
2013-03-29 23:40:00,39.2,35.7,30.31,West,260,1.0,0.0,87,0.00,,,0.00,WeatherDisplay:10.37,2013-03-30 03:40:00,
2013-03-29 23:41:00,39.2,35.7,30.31,West,260,1.2,0.0,87,0.00,,,0.00,WeatherDisplay:10.37,2013-03-30 03:41:00,
2013-03-29 23:43:00,39.2,35.7,30.32,West,260,1.2,0.0,87,0.00,,,0.00,WeatherDisplay:10.37,2013-03-30 03:43:00,
2013-03-29 23:45:00,39.2,35.7,30.31,West,260,0.0,0.0,87,0.00,,,0.00,WeatherDisplay:10.37,2013-03-30 03:45:00,
2013-03-29 23:46:00,39.2,35.7,30.32,West,260,1.0,0.0,87,0.00,,,0.00,WeatherDisplay:10.37,2013-03-30 03:46:00,
2013-03-29 23:48:00,39.2,35.7,30.31,West,260,0.0,0.0,87,0.00,,,0.00,WeatherDisplay:10.37,2013-03-30 03:48:00,
2013-03-29 23:50:00,39.2,35.7,30.31,West,260,0.0,0.0,87,0.00,,,0.00,WeatherDisplay:10.37,2013-03-30 03:50:00,
2013-03-29 23:51:00,39.2,35.7,30.31,West,260,0.0,0.0,87,0.00,,,0.00,WeatherDisplay:10.37,2013-03-30 03:51:00,
2013-03-29 23:52:00,39.2,35.7,30.31,West,260,0.0,0.0,87,0.00,,,0.00,WeatherDisplay:10.37,2013-03-30 03:52:00,
2013-03-29 23:53:00,39.2,35.7,30.31,West,260,0.0,0.0,87,0.00,,,0.00,WeatherDisplay:10.37,2013-03-30 03:53:00,
2013-03-29 23:55:00,39.2,35.7,30.31,West,260,0.0,0.0,87,0.00,,,0.00,WeatherDisplay:10.37,2013-03-30 03:55:00,
2013-03-29 23:57:00,39.2,35.7,30.31,West,260,0.0,0.0,87,0.00,,,0.00,WeatherDisplay:10.37,2013-03-30 03:57:00,
2013-03-29 23:58:00,39.2,35.7,30.31,West,260,0.0,0.0,87,0.00,,,0.00,WeatherDisplay:10.37,2013-03-30 03:58:00,